Time,TemperatureF,DewpointF,PressureIn,WindDirection,WindDirectionDegrees,WindSpeedMPH,WindSpeedGustMPH,Humidity,HourlyPrecipIn,Conditions,Clouds,dailyrainin,SoftwareType,DateUTC
2013-02-09 00:00:00,30.0,23.7,30.34,ESE,117,0.0,4.0,77,0.00,,OVC014,0.00,VWS V14.01,2013-02-09 06:00:00,
2013-02-09 00:01:00,30.0,23.7,30.34,East,82,1.0,4.0,77,0.00,,OVC014,0.00,VWS V14.01,2013-02-09 06:01:00,
2013-02-09 00:06:00,30.2,23.9,30.34,SE,128,0.0,4.0,77,0.00,,OVC014,0.00,VWS V14.01,2013-02-09 06:06:00,
2013-02-09 00:11:00,30.2,23.9,30.34,East,95,0.0,4.0,77,0.00,,OVC014,0.00,VWS V14.01,2013-02-09 06:11:00,
2013-02-09 00:16:00,30.2,23.9,30.34,SSE,154,0.0,4.0,77,0.00,,OVC014,0.00,VWS V14.01,2013-02-09 06:16:00,
2013-02-09 00:17:00,30.2,23.9,30.34,SSE,154,0.0,4.0,77,0.00,,OVC014,0.00,VWS V14.01,2013-02-09 06:17:00,
2013-02-09 00:21:00,30.2,23.9,30.34,SE,144,0.0,4.0,77,0.00,,OVC014,0.00,VWS V14.01,2013-02-09 06:21:00,
2013-02-09 00:22:00,30.2,23.9,30.34,SSE,147,0.0,4.0,77,0.00,,OVC014,0.00,VWS V14.01,2013-02-09 06:22:00,
2013-02-09 00:26:00,30.2,23.9,30.34,SE,136,1.0,7.0,77,0.00,,OVC014,0.00,VWS V14.01,2013-02-09 06:26:00,
2013-02-09 00:27:00,30.2,23.9,30.34,East,101,4.0,7.0,77,0.00,,OVC014,0.00,VWS V14.01,2013-02-09 06:27:00,
2013-02-09 00:30:00,29.6,23.3,30.33,SE,134,5.0,7.0,77,0.00,,OVC043,0.00,VWS V14.01,2013-02-09 06:30:00,
2013-02-09 00:31:00,30.0,23.7,30.33,ESE,109,2.0,3.0,77,0.00,,OVC014,0.00,VWS V14.01,2013-02-09 06:31:00,
2013-02-09 00:32:00,30.0,23.7,30.33,ESE,103,0.0,5.0,77,0.00,,OVC014,0.00,VWS V14.01,2013-02-09 06:32:00,
2013-02-09 00:33:00,30.0,23.7,30.33,ESE,113,0.0,5.0,77,0.00,,OVC014,0.00,VWS V14.01,2013-02-09 06:33:00,
2013-02-09 00:36:00,30.0,23.7,30.33,East,88,0.0,5.0,77,0.00,,OVC014,0.00,VWS V14.01,2013-02-09 06:36:00,
2013-02-09 00:37:00,30.0,23.7,30.33,East,97,0.0,5.0,77,0.00,,OVC014,0.00,VWS V14.01,2013-02-09 06:37:00,
2013-02-09 00:38:00,30.0,23.7,30.33,SE,126,0.0,5.0,77,0.00,,OVC014,0.00,VWS V14.01,2013-02-09 06:38:00,
2013-02-09 00:41:00,30.0,23.7,30.33,ESE,114,0.0,5.0,77,0.00,,OVC014,0.00,VWS V14.01,2013-02-09 06:41:00,
2013-02-09 00:42:00,30.0,23.7,30.33,East,99,2.0,5.0,77,0.00,,OVC014,0.00,VWS V14.01,2013-02-09 06:42:00,
2013-02-09 00:43:00,30.0,23.7,30.33,East,96,0.0,5.0,77,0.00,,OVC014,0.00,VWS V14.01,2013-02-09 06:43:00,
2013-02-09 00:46:00,30.0,23.7,30.33,ENE,78,0.0,5.0,77,0.00,,OVC014,0.00,VWS V14.01,2013-02-09 06:46:00,
2013-02-09 00:47:00,30.0,23.7,30.33,East,101,0.0,5.0,77,0.00,,OVC014,0.00,VWS V14.01,2013-02-09 06:47:00,
2013-02-09 00:48:00,29.9,23.6,30.33,ESE,105,0.0,8.0,77,0.00,,OVC014,0.00,VWS V14.01,2013-02-09 06:48:00,
2013-02-09 00:52:00,29.9,23.6,30.33,ESE,111,0.0,8.0,77,0.00,,OVC014,0.00,VWS V14.01,2013-02-09 06:52:00,
2013-02-09 00:54:00,29.9,23.6,30.33,ESE,111,0.0,8.0,77,0.00,,OVC014,0.00,VWS V14.01,2013-02-09 06:54:00,
2013-02-09 00:57:00,29.9,23.6,30.33,SE,135,3.0,8.0,77,0.00,,OVC014,0.00,VWS V14.01,2013-02-09 06:57:00,
2013-02-09 00:59:00,29.9,23.6,30.33,East,79,0.0,8.0,77,0.00,,OVC014,0.00,VWS V14.01,2013-02-09 06:59:00,
2013-02-09 01:00:00,29.6,23.0,30.34,SE,127,0.0,6.0,76,0.00,,OVC043,0.00,VWS V14.01,2013-02-09 07:00:00,
2013-02-09 01:02:00,29.9,23.6,30.33,East,79,0.0,0.0,77,0.00,,OVC014,0.00,VWS V14.01,2013-02-09 07:02:00,
2013-02-09 01:04:00,29.9,23.6,30.33,ESE,122,0.0,3.0,77,0.00,,OVC014,0.00,VWS V14.01,2013-02-09 07:04:00,
2013-02-09 01:07:00,30.0,23.7,30.33,ESE,121,0.0,3.0,77,0.00,,OVC014,0.00,VWS V14.01,2013-02-09 07:07:00,
2013-02-09 01:08:00,29.9,23.6,30.33,ESE,120,0.0,3.0,77,0.00,,OVC014,0.00,VWS V14.01,2013-02-09 07:08:00,
2013-02-09 01:09:00,30.0,23.7,30.33,ESE,120,0.0,3.0,77,0.00,,OVC014,0.00,VWS V14.01,2013-02-09 07:09:00,
2013-02-09 01:12:00,30.0,23.7,30.33,ESE,120,0.0,3.0,77,0.00,,OVC014,0.00,VWS V14.01,2013-02-09 07:12:00,
2013-02-09 01:13:00,30.0,23.7,30.33,ESE,121,0.0,3.0,77,0.00,,OVC014,0.00,VWS V14.01,2013-02-09 07:13:00,
2013-02-09 01:14:00,30.0,23.7,30.33,ENE,67,2.0,5.0,77,0.00,,OVC014,0.00,VWS V14.01,2013-02-09 07:14:00,
2013-02-09 01:17:00,29.9,23.6,30.33,East,92,0.0,6.0,77,0.00,,OVC014,0.00,VWS V14.01,2013-02-09 07:17:00,
2013-02-09 01:18:00,29.9,23.6,30.33,SE,143,1.0,6.0,77,0.00,,OVC014,0.00,VWS V14.01,2013-02-09 07:18:00,
2013-02-09 01:19:00,29.9,23.9,30.33,ESE,102,0.0,6.0,78,0.00,,OVC014,0.00,VWS V14.01,2013-02-09 07:19:00,
2013-02-09 01:22:00,29.9,23.6,30.33,East,82,0.0,6.0,77,0.00,,OVC014,0.00,VWS V14.01,2013-02-09 07:22:00,
2013-02-09 01:23:00,29.9,23.6,30.33,ESE,106,0.0,6.0,77,0.00,,OVC014,0.00,VWS V14.01,2013-02-09 07:23:00,
2013-02-09 01:24:00,29.9,23.6,30.33,ESE,107,2.0,6.0,77,0.00,,OVC014,0.00,VWS V14.01,2013-02-09 07:24:00,
2013-02-09 01:27:00,29.7,23.4,30.33,ENE,69,0.0,6.0,77,0.00,,OVC014,0.00,VWS V14.01,2013-02-09 07:27:00,
2013-02-09 01:28:00,29.7,23.4,30.33,East,82,5.0,6.0,77,0.00,,OVC014,0.00,VWS V14.01,2013-02-09 07:28:00,
2013-02-09 01:30:00,29.6,23.3,30.33,ESE,122,0.0,5.0,77,0.00,,OVC014,0.00,VWS V14.01,2013-02-09 07:30:00,
2013-02-09 01:32:00,29.6,23.3,30.33,SE,127,0.0,6.0,77,0.00,,OVC014,0.00,VWS V14.01,2013-02-09 07:32:00,
2013-02-09 01:33:00,29.6,23.3,30.33,SE,134,0.0,6.0,77,0.00,,OVC014,0.00,VWS V14.01,2013-02-09 07:33:00,
2013-02-09 01:35:00,29.6,23.0,30.33,SE,134,0.0,6.0,76,0.00,,OVC014,0.00,VWS V14.01,2013-02-09 07:35:00,
2013-02-09 01:37:00,29.6,23.3,30.33,SE,134,0.0,6.0,77,0.00,,OVC014,0.00,VWS V14.01,2013-02-09 07:37:00,
2013-02-09 01:38:00,29.6,23.3,30.33,SE,134,0.0,6.0,77,0.00,,OVC014,0.00,VWS V14.01,2013-02-09 07:38:00,
2013-02-09 01:40:00,29.6,23.3,30.33,East,86,0.0,6.0,77,0.00,,OVC014,0.00,VWS V14.01,2013-02-09 07:40:00,
2013-02-09 01:42:00,29.6,23.3,30.33,NE,56,0.0,6.0,77,0.00,,OVC014,0.00,VWS V14.01,2013-02-09 07:42:00,
2013-02-09 01:43:00,29.6,23.3,30.33,NE,56,0.0,6.0,77,0.00,,OVC014,0.00,VWS V14.01,2013-02-09 07:43:00,
2013-02-09 01:45:00,29.6,23.3,30.33,ESE,119,0.0,6.0,77,0.00,,OVC014,0.00,VWS V14.01,2013-02-09 07:45:00,
2013-02-09 01:48:00,29.6,23.3,30.33,ENE,78,2.0,6.0,77,0.00,,OVC014,0.00,VWS V14.01,2013-02-09 07:48:00,
2013-02-09 01:50:00,29.6,23.3,30.33,East,86,0.0,6.0,77,0.00,,OVC014,0.00,VWS V14.01,2013-02-09 07:50:00,
2013-02-09 01:53:00,29.6,23.0,30.33,ENE,78,0.0,6.0,76,0.00,,OVC014,0.00,VWS V14.01,2013-02-09 07:53:00,
2013-02-09 01:55:00,29.6,23.3,30.33,ESE,117,0.0,6.0,77,0.00,,OVC014,0.00,VWS V14.01,2013-02-09 07:55:00,
2013-02-09 01:58:00,29.6,23.0,30.33,SE,128,3.0,6.0,76,0.00,,OVC014,0.00,VWS V14.01,2013-02-09 07:58:00,
2013-02-09 02:00:00,29.6,23.0,30.34,SE,125,0.0,0.0,76,0.00,,OVC014,0.00,VWS V14.01,2013-02-09 08:00:00,
2013-02-09 02:03:00,29.6,23.0,30.34,SE,137,0.0,3.0,76,0.00,,OVC014,0.00,VWS V14.01,2013-02-09 08:03:00,
2013-02-09 02:04:00,29.6,23.0,30.34,SE,137,0.0,3.0,76,0.00,,OVC014,0.00,VWS V14.01,2013-02-09 08:04:00,
2013-02-09 02:05:00,29.6,23.0,30.34,South,184,2.0,3.0,76,0.00,,OVC014,0.00,VWS V14.01,2013-02-09 08:05:00,
2013-02-09 02:08:00,29.6,23.0,30.34,SE,135,0.0,4.0,76,0.00,,OVC014,0.00,VWS V14.01,2013-02-09 08:08:00,
2013-02-09 02:09:00,29.6,23.0,30.34,SE,135,0.0,4.0,76,0.00,,OVC014,0.00,VWS V14.01,2013-02-09 08:09:00,
2013-02-09 02:11:00,29.6,23.3,30.34,SE,141,0.0,4.0,77,0.00,,OVC014,0.00,VWS V14.01,2013-02-09 08:11:00,
2013-02-09 02:13:00,29.6,23.3,30.34,SE,134,0.0,4.0,77,0.00,,OVC014,0.00,VWS V14.01,2013-02-09 08:13:00,
2013-02-09 02:14:00,29.6,23.3,30.33,ESE,119,2.0,4.0,77,0.00,,OVC014,0.00,VWS V14.01,2013-02-09 08:14:00,
2013-02-09 02:16:00,29.6,23.3,30.33,SE,139,0.0,6.0,77,0.00,,OVC014,0.00,VWS V14.01,2013-02-09 08:16:00,
2013-02-09 02:19:00,29.6,23.3,30.33,ESE,122,0.0,6.0,77,0.00,,OVC014,0.00,VWS V14.01,2013-02-09 08:19:00,
2013-02-09 02:21:00,29.6,23.3,30.33,ESE,111,0.0,6.0,77,0.00,,OVC014,0.00,VWS V14.01,2013-02-09 08:21:00,
2013-02-09 02:24:00,29.6,23.3,30.33,SE,140,1.0,6.0,77,0.00,,OVC014,0.00,VWS V14.01,2013-02-09 08:24:00,
2013-02-09 02:26:00,29.6,23.3,30.33,ESE,123,0.0,6.0,77,0.00,,OVC014,0.00,VWS V14.01,2013-02-09 08:26:00,
2013-02-09 02:29:00,29.6,23.3,30.33,SE,129,1.0,6.0,77,0.00,,OVC014,0.00,VWS V14.01,2013-02-09 08:29:00,
2013-02-09 02:30:00,29.6,23.0,30.34,SSE,151,0.0,6.0,76,0.00,,OVC043,0.00,VWS V14.01,2013-02-09 08:30:00,
2013-02-09 02:31:00,29.6,23.3,30.33,SSE,165,2.0,5.0,77,0.00,,OVC014,0.00,VWS V14.01,2013-02-09 08:31:00,
2013-02-09 02:34:00,29.6,23.3,30.33,SE,128,0.0,8.0,77,0.00,,OVC014,0.00,VWS V14.01,2013-02-09 08:34:00,
2013-02-09 02:36:00,29.6,23.3,30.33,SE,140,0.0,8.0,77,0.00,,OVC014,0.00,VWS V14.01,2013-02-09 08:36:00,
2013-02-09 02:39:00,29.6,23.3,30.33,SE,132,4.0,8.0,77,0.00,,OVC014,0.00,VWS V14.01,2013-02-09 08:39:00,
2013-02-09 02:42:00,29.6,23.3,30.33,ENE,64,0.0,8.0,77,0.00,,OVC014,0.00,VWS V14.01,2013-02-09 08:42:00,
2013-02-09 02:44:00,29.6,23.3,30.34,ESE,119,0.0,8.0,77,0.00,,OVC014,0.00,VWS V14.01,2013-02-09 08:44:00,
2013-02-09 02:45:00,29.6,23.3,30.34,ESE,118,0.0,8.0,77,0.00,,OVC014,0.00,VWS V14.01,2013-02-09 08:45:00,
2013-02-09 02:47:00,29.6,23.3,30.34,ESE,119,0.0,8.0,77,0.00,,OVC014,0.00,VWS V14.01,2013-02-09 08:47:00,
2013-02-09 02:49:00,29.6,23.3,30.34,South,173,3.0,8.0,77,0.00,,OVC014,0.00,VWS V14.01,2013-02-09 08:49:00,
2013-02-09 02:50:00,29.6,23.3,30.34,South,173,0.0,8.0,77,0.00,,OVC014,0.00,VWS V14.01,2013-02-09 08:50:00,
2013-02-09 02:52:00,29.6,23.3,30.34,SE,135,2.0,8.0,77,0.00,,OVC014,0.00,VWS V14.01,2013-02-09 08:52:00,
2013-02-09 02:54:00,29.6,23.0,30.34,SE,133,0.0,8.0,76,0.00,,OVC014,0.00,VWS V14.01,2013-02-09 08:54:00,
2013-02-09 02:55:00,29.6,23.0,30.34,SE,134,0.0,8.0,76,0.00,,OVC014,0.00,VWS V14.01,2013-02-09 08:55:00,
2013-02-09 02:57:00,29.6,23.3,30.34,South,182,0.0,8.0,77,0.00,,OVC014,0.00,VWS V14.01,2013-02-09 08:57:00,
2013-02-09 02:59:00,29.6,23.3,30.34,South,180,0.0,8.0,77,0.00,,OVC014,0.00,VWS V14.01,2013-02-09 08:59:00,
2013-02-09 03:00:00,29.6,23.3,30.34,South,180,0.0,8.0,77,0.00,,OVC014,0.00,VWS V14.01,2013-02-09 09:00:00,
2013-02-09 03:03:00,29.6,23.0,30.34,ESE,121,2.0,6.0,76,0.00,,OVC014,0.00,VWS V14.01,2013-02-09 09:03:00,
2013-02-09 03:04:00,29.4,22.8,30.34,ESE,113,0.0,6.0,76,0.00,,OVC014,0.00,VWS V14.01,2013-02-09 09:04:00,
2013-02-09 03:05:00,29.4,22.8,30.34,ESE,109,0.0,6.0,76,0.00,,OVC014,0.00,VWS V14.01,2013-02-09 09:05:00,
2013-02-09 03:08:00,29.4,22.8,30.34,ESE,105,0.0,6.0,76,0.00,,OVC014,0.00,VWS V14.01,2013-02-09 09:08:00,
2013-02-09 03:09:00,29.4,22.8,30.34,SE,128,0.0,6.0,76,0.00,,OVC014,0.00,VWS V14.01,2013-02-09 09:09:00,
2013-02-09 03:10:00,29.4,22.8,30.34,SE,128,0.0,6.0,76,0.00,,OVC014,0.00,VWS V14.01,2013-02-09 09:10:00,
2013-02-09 03:11:00,29.4,22.8,30.34,SE,128,0.0,6.0,76,0.00,,OVC014,0.00,VWS V14.01,2013-02-09 09:11:00,
2013-02-09 03:13:00,29.4,22.8,30.34,SE,126,0.0,6.0,76,0.00,,OVC014,0.00,VWS V14.01,2013-02-09 09:13:00,
2013-02-09 03:14:00,29.6,23.0,30.34,SE,126,0.0,6.0,76,0.00,,OVC014,0.00,VWS V14.01,2013-02-09 09:14:00,
2013-02-09 03:15:00,29.6,23.0,30.34,SE,126,0.0,6.0,76,0.00,,OVC014,0.00,VWS V14.01,2013-02-09 09:15:00,
2013-02-09 03:16:00,29.6,23.0,30.34,SE,126,0.0,6.0,76,0.00,,OVC014,0.00,VWS V14.01,2013-02-09 09:16:00,
2013-02-09 03:18:00,29.6,23.0,30.34,ESE,123,1.0,6.0,76,0.00,,OVC014,0.00,VWS V14.01,2013-02-09 09:18:00,
2013-02-09 03:20:00,29.6,23.0,30.34,ESE,122,0.0,6.0,76,0.00,,OVC014,0.00,VWS V14.01,2013-02-09 09:20:00,
2013-02-09 03:21:00,29.6,23.0,30.34,ESE,123,0.0,6.0,76,0.00,,OVC014,0.00,VWS V14.01,2013-02-09 09:21:00,
2013-02-09 03:23:00,29.6,23.0,30.34,ESE,123,0.0,6.0,76,0.00,,OVC014,0.00,VWS V14.01,2013-02-09 09:23:00,
2013-02-09 03:25:00,29.6,23.0,30.34,SSE,155,0.0,6.0,76,0.00,,OVC014,0.00,VWS V14.01,2013-02-09 09:25:00,
2013-02-09 03:26:00,29.6,23.0,30.34,SSE,153,3.0,6.0,76,0.00,,OVC014,0.00,VWS V14.01,2013-02-09 09:26:00,
2013-02-09 03:28:00,29.6,23.3,30.34,SE,134,3.0,6.0,77,0.00,,OVC014,0.00,VWS V14.01,2013-02-09 09:28:00,
2013-02-09 03:30:00,29.6,23.0,30.34,ESE,115,5.0,5.0,76,0.00,,OVC014,0.00,VWS V14.01,2013-02-09 09:30:00,
2013-02-09 03:31:00,29.6,23.0,30.34,ESE,107,0.0,5.0,76,0.00,,OVC014,0.00,VWS V14.01,2013-02-09 09:31:00,
2013-02-09 03:33:00,29.6,23.0,30.34,SE,135,0.0,5.0,76,0.00,,OVC014,0.00,VWS V14.01,2013-02-09 09:33:00,
2013-02-09 03:35:00,29.6,23.0,30.34,SSE,150,0.0,7.0,76,0.00,,OVC014,0.00,VWS V14.01,2013-02-09 09:35:00,
2013-02-09 03:36:00,29.6,23.0,30.34,SSE,150,0.0,7.0,76,0.00,,OVC014,0.00,VWS V14.01,2013-02-09 09:36:00,
2013-02-09 03:38:00,29.4,22.8,30.34,SE,139,0.0,7.0,76,0.00,,OVC014,0.00,VWS V14.01,2013-02-09 09:38:00,
2013-02-09 03:40:00,29.4,22.8,30.34,SE,138,0.0,7.0,76,0.00,,OVC014,0.00,VWS V14.01,2013-02-09 09:40:00,
2013-02-09 03:41:00,29.4,22.8,30.34,SE,138,0.0,7.0,76,0.00,,OVC014,0.00,VWS V14.01,2013-02-09 09:41:00,
2013-02-09 03:44:00,29.4,22.8,30.34,SE,137,0.0,7.0,76,0.00,,OVC014,0.00,VWS V14.01,2013-02-09 09:44:00,
2013-02-09 03:45:00,29.4,22.8,30.34,SE,137,0.0,7.0,76,0.00,,OVC014,0.00,VWS V14.01,2013-02-09 09:45:00,
2013-02-09 03:46:00,29.4,22.8,30.34,SE,137,0.0,7.0,76,0.00,,OVC014,0.00,VWS V14.01,2013-02-09 09:46:00,
2013-02-09 03:49:00,29.6,23.0,30.34,SE,138,0.0,7.0,76,0.00,,OVC014,0.00,VWS V14.01,2013-02-09 09:49:00,
2013-02-09 03:51:00,29.6,23.0,30.34,ESE,107,2.0,7.0,76,0.00,,OVC014,0.00,VWS V14.01,2013-02-09 09:51:00,
2013-02-09 03:54:00,29.6,22.7,30.34,SSE,155,0.0,7.0,75,0.00,,OVC014,0.00,VWS V14.01,2013-02-09 09:54:00,
2013-02-09 03:56:00,29.6,22.7,30.34,SSE,153,0.0,7.0,75,0.00,,OVC014,0.00,VWS V14.01,2013-02-09 09:56:00,
2013-02-09 03:59:00,29.6,22.7,30.34,ESE,113,5.0,11.0,75,0.00,,OVC014,0.00,VWS V14.01,2013-02-09 09:59:00,
2013-02-09 04:00:00,29.7,23.1,30.33,SSE,159,0.0,4.0,76,0.00,,OVC043,0.00,VWS V14.01,2013-02-09 10:00:00,
2013-02-09 04:01:00,29.4,22.5,30.34,SE,144,0.0,7.0,75,0.00,,OVC014,0.00,VWS V14.01,2013-02-09 10:01:00,
2013-02-09 04:04:00,29.4,22.1,30.34,SE,138,1.0,8.0,74,0.00,,OVC014,0.00,VWS V14.01,2013-02-09 10:04:00,
2013-02-09 04:06:00,29.6,22.7,30.34,East,92,1.0,8.0,75,0.00,,OVC014,0.00,VWS V14.01,2013-02-09 10:06:00,
2013-02-09 04:09:00,29.6,22.7,30.34,SE,141,0.0,8.0,75,0.00,,OVC014,0.00,VWS V14.01,2013-02-09 10:09:00,
2013-02-09 04:11:00,29.6,22.7,30.34,SSE,150,0.0,8.0,75,0.00,,OVC014,0.00,VWS V14.01,2013-02-09 10:11:00,
2013-02-09 04:14:00,29.6,22.7,30.34,SE,128,0.0,8.0,75,0.00,,OVC014,0.00,VWS V14.01,2013-02-09 10:14:00,
2013-02-09 04:16:00,29.6,22.7,30.34,SE,127,0.0,8.0,75,0.00,,OVC014,0.00,VWS V14.01,2013-02-09 10:16:00,
2013-02-09 04:19:00,29.6,22.7,30.34,SE,129,0.0,8.0,75,0.00,,OVC014,0.00,VWS V14.01,2013-02-09 10:19:00,
2013-02-09 04:21:00,29.6,22.7,30.34,SE,136,0.0,8.0,75,0.00,,OVC014,0.00,VWS V14.01,2013-02-09 10:21:00,
2013-02-09 04:22:00,29.6,22.7,30.34,SE,137,0.0,8.0,75,0.00,,OVC014,0.00,VWS V14.01,2013-02-09 10:22:00,
2013-02-09 04:24:00,29.6,22.7,30.34,SE,144,0.0,8.0,75,0.00,,OVC014,0.00,VWS V14.01,2013-02-09 10:24:00,
2013-02-09 04:26:00,29.6,22.7,30.34,SE,144,0.0,8.0,75,0.00,,OVC014,0.00,VWS V14.01,2013-02-09 10:26:00,
2013-02-09 04:27:00,29.6,22.7,30.34,SE,144,0.0,8.0,75,0.00,,OVC014,0.00,VWS V14.01,2013-02-09 10:27:00,
2013-02-09 04:29:00,29.7,22.8,30.34,SE,140,1.0,8.0,75,0.00,,OVC014,0.00,VWS V14.01,2013-02-09 10:29:00,
2013-02-09 04:30:00,29.7,23.1,30.32,South,188,0.0,5.0,76,0.00,,OVC043,0.00,VWS V14.01,2013-02-09 10:30:00,
2013-02-09 04:31:00,29.7,22.8,30.34,SE,132,4.0,4.0,75,0.00,,OVC014,0.00,VWS V14.01,2013-02-09 10:31:00,
2013-02-09 04:32:00,29.7,22.8,30.34,SE,130,3.0,4.0,75,0.00,,OVC014,0.00,VWS V14.01,2013-02-09 10:32:00,
2013-02-09 04:34:00,29.7,22.4,30.34,SE,128,0.0,4.0,74,0.00,,OVC014,0.00,VWS V14.01,2013-02-09 10:34:00,
2013-02-09 04:36:00,29.7,22.8,30.34,SE,127,0.0,4.0,75,0.00,,OVC014,0.00,VWS V14.01,2013-02-09 10:36:00,
2013-02-09 04:37:00,29.7,22.8,30.34,SE,127,0.0,4.0,75,0.00,,OVC014,0.00,VWS V14.01,2013-02-09 10:37:00,
2013-02-09 04:39:00,29.7,22.8,30.34,SE,127,0.0,4.0,75,0.00,,OVC014,0.00,VWS V14.01,2013-02-09 10:39:00,
2013-02-09 04:42:00,29.7,22.8,30.34,SE,127,0.0,4.0,75,0.00,,OVC014,0.00,VWS V14.01,2013-02-09 10:42:00,
2013-02-09 04:44:00,29.7,22.8,30.33,SSE,161,0.0,4.0,75,0.00,,OVC014,0.00,VWS V14.01,2013-02-09 10:44:00,
2013-02-09 04:47:00,29.7,22.8,30.33,SE,124,0.0,4.0,75,0.00,,OVC016,0.00,VWS V14.01,2013-02-09 10:47:00,
2013-02-09 04:50:00,29.7,23.1,30.33,SE,138,0.0,4.0,76,0.00,,OVC016,0.00,VWS V14.01,2013-02-09 10:50:00,
2013-02-09 04:52:00,29.7,23.1,30.33,SE,138,0.0,4.0,76,0.00,,OVC016,0.00,VWS V14.01,2013-02-09 10:52:00,
2013-02-09 04:55:00,29.7,23.1,30.33,SSE,160,0.0,4.0,76,0.00,,OVC016,0.00,VWS V14.01,2013-02-09 10:55:00,
2013-02-09 04:57:00,29.7,23.1,30.33,SSE,160,0.0,4.0,76,0.00,,OVC016,0.00,VWS V14.01,2013-02-09 10:57:00,
2013-02-09 04:58:00,29.7,23.1,30.33,SSE,160,0.0,4.0,76,0.00,,OVC016,0.00,VWS V14.01,2013-02-09 10:58:00,
2013-02-09 05:00:00,29.7,23.1,30.33,SSE,159,0.0,0.0,76,0.00,,OVC016,0.00,VWS V14.01,2013-02-09 11:00:00,
2013-02-09 05:02:00,29.7,23.1,30.33,SSE,159,0.0,0.0,76,0.00,,OVC016,0.00,VWS V14.01,2013-02-09 11:02:00,
2013-02-09 05:03:00,29.7,23.1,30.33,SSE,159,0.0,0.0,76,0.00,,OVC016,0.00,VWS V14.01,2013-02-09 11:03:00,
2013-02-09 05:05:00,29.7,23.1,30.33,SSE,159,0.0,0.0,76,0.00,,OVC016,0.00,VWS V14.01,2013-02-09 11:05:00,
2013-02-09 05:07:00,29.7,23.1,30.33,SSE,151,0.0,1.0,76,0.00,,OVC016,0.00,VWS V14.01,2013-02-09 11:07:00,
2013-02-09 05:08:00,29.7,23.1,30.33,SE,146,0.0,1.0,76,0.00,,OVC016,0.00,VWS V14.01,2013-02-09 11:08:00,
2013-02-09 05:10:00,29.7,23.1,30.33,SE,144,1.0,5.0,76,0.00,,OVC016,0.00,VWS V14.01,2013-02-09 11:10:00,
2013-02-09 05:12:00,29.6,23.0,30.33,SE,140,0.0,5.0,76,0.00,,OVC016,0.00,VWS V14.01,2013-02-09 11:12:00,
2013-02-09 05:13:00,29.6,23.0,30.33,SE,141,0.0,5.0,76,0.00,,OVC016,0.00,VWS V14.01,2013-02-09 11:13:00,
2013-02-09 05:15:00,29.7,23.1,30.33,SSE,161,0.0,5.0,76,0.00,,OVC016,0.00,VWS V14.01,2013-02-09 11:15:00,
2013-02-09 05:17:00,29.7,23.1,30.33,South,186,2.0,5.0,76,0.00,,OVC016,0.00,VWS V14.01,2013-02-09 11:17:00,
2013-02-09 05:18:00,29.6,23.0,30.33,South,169,0.0,5.0,76,0.00,,OVC016,0.00,VWS V14.01,2013-02-09 11:18:00,
2013-02-09 05:20:00,29.6,23.0,30.33,SE,140,0.0,5.0,76,0.00,,OVC016,0.00,VWS V14.01,2013-02-09 11:20:00,
2013-02-09 05:22:00,29.7,23.1,30.33,SE,135,0.0,5.0,76,0.00,,OVC016,0.00,VWS V14.01,2013-02-09 11:22:00,
2013-02-09 05:23:00,29.7,23.1,30.33,SE,135,0.0,5.0,76,0.00,,OVC016,0.00,VWS V14.01,2013-02-09 11:23:00,
2013-02-09 05:25:00,29.7,23.1,30.33,SE,136,0.0,5.0,76,0.00,,OVC016,0.00,VWS V14.01,2013-02-09 11:25:00,
2013-02-09 05:27:00,29.7,23.1,30.33,SE,139,0.0,5.0,76,0.00,,OVC016,0.00,VWS V14.01,2013-02-09 11:27:00,
2013-02-09 05:28:00,29.7,23.1,30.33,SE,139,0.0,5.0,76,0.00,,OVC016,0.00,VWS V14.01,2013-02-09 11:28:00,
2013-02-09 05:30:00,29.7,23.1,30.32,South,188,0.0,0.0,76,0.00,,OVC016,0.00,VWS V14.01,2013-02-09 11:30:00,
2013-02-09 05:32:00,29.7,23.1,30.32,SE,129,0.0,3.0,76,0.00,,OVC016,0.00,VWS V14.01,2013-02-09 11:32:00,
2013-02-09 05:33:00,29.7,23.1,30.32,SE,128,0.0,3.0,76,0.00,,OVC016,0.00,VWS V14.01,2013-02-09 11:33:00,
2013-02-09 05:35:00,29.7,23.1,30.32,SE,124,0.0,3.0,76,0.00,,OVC016,0.00,VWS V14.01,2013-02-09 11:35:00,
2013-02-09 05:37:00,29.7,23.1,30.32,SE,126,0.0,3.0,76,0.00,,OVC016,0.00,VWS V14.01,2013-02-09 11:37:00,
2013-02-09 05:38:00,29.7,23.1,30.32,SE,126,0.0,3.0,76,0.00,,OVC016,0.00,VWS V14.01,2013-02-09 11:38:00,
2013-02-09 05:41:00,29.7,23.4,30.32,ESE,114,2.0,3.0,77,0.00,,OVC016,0.00,VWS V14.01,2013-02-09 11:41:00,
2013-02-09 05:42:00,29.7,23.4,30.32,SE,141,2.0,5.0,77,0.00,,OVC016,0.00,VWS V14.01,2013-02-09 11:42:00,
2013-02-09 05:43:00,29.7,23.4,30.32,SSE,147,3.0,5.0,77,0.00,,OVC016,0.00,VWS V14.01,2013-02-09 11:43:00,
2013-02-09 05:44:00,29.7,23.4,30.31,SSE,151,0.0,5.0,77,0.00,,OVC016,0.00,VWS V14.01,2013-02-09 11:44:00,
2013-02-09 05:45:00,29.9,23.6,30.31,SE,140,0.0,5.0,77,0.00,,OVC016,0.00,VWS V14.01,2013-02-09 11:45:00,
2013-02-09 05:48:00,29.9,23.6,30.31,SE,140,0.0,5.0,77,0.00,,OVC016,0.00,VWS V14.01,2013-02-09 11:48:00,
2013-02-09 05:49:00,29.9,23.6,30.31,SE,130,0.0,6.0,77,0.00,,OVC016,0.00,VWS V14.01,2013-02-09 11:49:00,
2013-02-09 05:51:00,29.7,23.4,30.31,SE,132,5.0,9.0,77,0.00,,OVC016,0.00,VWS V14.01,2013-02-09 11:51:00,
2013-02-09 05:53:00,29.7,23.4,30.31,ESE,122,2.0,9.0,77,0.00,,OVC016,0.00,VWS V14.01,2013-02-09 11:53:00,
2013-02-09 05:54:00,29.7,23.4,30.31,SE,135,4.0,9.0,77,0.00,,OVC016,0.00,VWS V14.01,2013-02-09 11:54:00,
2013-02-09 05:56:00,29.7,23.4,30.31,ESE,121,0.0,9.0,77,0.00,,OVC016,0.00,VWS V14.01,2013-02-09 11:56:00,
2013-02-09 05:58:00,29.7,23.4,30.31,ESE,121,0.0,9.0,77,0.00,,OVC016,0.00,VWS V14.01,2013-02-09 11:58:00,
2013-02-09 05:59:00,29.7,23.4,30.31,SE,146,1.0,9.0,77,0.00,,OVC016,0.00,VWS V14.01,2013-02-09 11:59:00,
2013-02-09 06:00:00,29.6,23.3,30.32,SE,146,0.0,13.0,77,0.00,,OVC043,0.00,VWS V14.01,2013-02-09 12:00:00,
2013-02-09 06:01:00,29.6,23.0,30.30,ESE,113,2.0,7.0,76,0.00,,OVC016,0.00,VWS V14.01,2013-02-09 12:01:00,
2013-02-09 06:03:00,29.6,23.0,30.30,SSE,153,2.0,9.0,76,0.00,,OVC016,0.00,VWS V14.01,2013-02-09 12:03:00,
2013-02-09 06:04:00,29.6,23.0,30.30,SE,144,4.0,9.0,76,0.00,,OVC016,0.00,VWS V14.01,2013-02-09 12:04:00,
2013-02-09 06:06:00,29.6,23.0,30.30,ESE,102,1.0,9.0,76,0.00,,OVC016,0.00,VWS V14.01,2013-02-09 12:06:00,
2013-02-09 06:08:00,29.6,23.0,30.30,ESE,122,8.0,13.0,76,0.00,,OVC016,0.00,VWS V14.01,2013-02-09 12:08:00,
2013-02-09 06:09:00,29.6,23.0,30.30,ENE,57,2.0,13.0,76,0.00,,OVC016,0.00,VWS V14.01,2013-02-09 12:09:00,
2013-02-09 06:11:00,29.6,23.0,30.30,East,93,0.0,13.0,76,0.00,,OVC016,0.00,VWS V14.01,2013-02-09 12:11:00,
2013-02-09 06:13:00,29.6,23.0,30.30,SE,144,5.0,13.0,76,0.00,,OVC016,0.00,VWS V14.01,2013-02-09 12:13:00,
2013-02-09 06:14:00,29.6,23.0,30.30,SE,131,5.0,13.0,76,0.00,,OVC016,0.00,VWS V14.01,2013-02-09 12:14:00,
2013-02-09 06:16:00,29.6,23.0,30.30,East,84,3.0,13.0,76,0.00,,OVC016,0.00,VWS V14.01,2013-02-09 12:16:00,
2013-02-09 06:19:00,29.6,23.0,30.30,SE,133,7.0,13.0,76,0.00,,OVC016,0.00,VWS V14.01,2013-02-09 12:19:00,
2013-02-09 06:20:00,29.4,22.8,30.30,SSE,157,0.0,13.0,76,0.00,,OVC016,0.00,VWS V14.01,2013-02-09 12:20:00,
2013-02-09 06:21:00,29.6,23.0,30.30,South,181,2.0,13.0,76,0.00,,OVC016,0.00,VWS V14.01,2013-02-09 12:21:00,
2013-02-09 06:24:00,29.4,22.8,30.30,South,171,2.0,13.0,76,0.00,,OVC016,0.00,VWS V14.01,2013-02-09 12:24:00,
2013-02-09 06:25:00,29.4,22.8,30.30,ESE,119,8.0,13.0,76,0.00,,OVC016,0.00,VWS V14.01,2013-02-09 12:25:00,
2013-02-09 06:27:00,29.4,22.8,30.30,SSE,153,0.0,13.0,76,0.00,,OVC016,0.00,VWS V14.01,2013-02-09 12:27:00,
2013-02-09 06:29:00,29.4,22.8,30.30,SSE,148,0.0,13.0,76,0.00,,OVC016,0.00,VWS V14.01,2013-02-09 12:29:00,
2013-02-09 06:30:00,29.4,22.8,30.30,SSE,159,2.0,5.0,76,0.00,,OVC016,0.00,VWS V14.01,2013-02-09 12:30:00,
2013-02-09 06:32:00,29.4,23.1,30.30,ESE,113,5.0,12.0,77,0.00,,OVC016,0.00,VWS V14.01,2013-02-09 12:32:00,
2013-02-09 06:34:00,29.4,23.1,30.30,SSE,153,4.0,12.0,77,0.00,,OVC016,0.00,VWS V14.01,2013-02-09 12:34:00,
2013-02-09 06:35:00,29.4,23.1,30.30,SE,131,6.0,12.0,77,0.00,,OVC016,0.00,VWS V14.01,2013-02-09 12:35:00,
2013-02-09 06:37:00,29.4,23.1,30.30,SE,126,5.0,12.0,77,0.00,,OVC016,0.00,VWS V14.01,2013-02-09 12:37:00,
2013-02-09 06:39:00,29.4,23.1,30.30,SE,140,4.0,12.0,77,0.00,,OVC016,0.00,VWS V14.01,2013-02-09 12:39:00,
2013-02-09 06:40:00,29.4,23.1,30.30,SSE,148,1.0,13.0,77,0.00,,OVC016,0.00,VWS V14.01,2013-02-09 12:40:00,
2013-02-09 06:42:00,29.4,23.1,30.30,SSE,162,3.0,13.0,77,0.00,,OVC016,0.00,VWS V14.01,2013-02-09 12:42:00,
2013-02-09 06:44:00,29.4,23.1,30.31,ESE,121,7.0,13.0,77,0.00,,OVC016,0.00,VWS V14.01,2013-02-09 12:44:00,
2013-02-09 06:45:00,29.4,23.1,30.31,SE,133,7.0,13.0,77,0.00,,OVC016,0.00,VWS V14.01,2013-02-09 12:45:00,
2013-02-09 06:47:00,29.4,24.0,30.31,South,185,6.0,13.0,80,0.00,,OVC016,0.00,VWS V14.01,2013-02-09 12:47:00,
2013-02-09 06:49:00,29.4,23.1,30.31,ESE,123,4.0,13.0,77,0.00,,OVC016,0.00,VWS V14.01,2013-02-09 12:49:00,
2013-02-09 06:50:00,29.4,23.1,30.31,SSE,149,3.0,13.0,77,0.00,,OVC016,0.00,VWS V14.01,2013-02-09 12:50:00,
2013-02-09 06:52:00,29.4,23.1,30.31,SSE,161,7.0,13.0,77,0.00,,OVC016,0.00,VWS V14.01,2013-02-09 12:52:00,
2013-02-09 06:54:00,29.4,23.1,30.31,SE,142,4.0,13.0,77,0.00,,OVC016,0.00,VWS V14.01,2013-02-09 12:54:00,
2013-02-09 06:55:00,29.4,23.1,30.31,SE,135,4.0,13.0,77,0.00,,OVC016,0.00,VWS V14.01,2013-02-09 12:55:00,
2013-02-09 06:57:00,29.4,23.1,30.31,SE,136,3.0,13.0,77,0.00,,OVC016,0.00,VWS V14.01,2013-02-09 12:57:00,
2013-02-09 06:59:00,29.6,23.3,30.32,SE,146,0.0,13.0,77,0.00,,OVC016,0.00,VWS V14.01,2013-02-09 12:59:00,
2013-02-09 07:00:00,29.6,23.3,30.32,SSE,147,6.0,14.0,77,0.00,,OVC043,0.00,VWS V14.01,2013-02-09 13:00:00,
2013-02-09 07:01:00,29.6,23.3,30.32,SE,126,0.0,3.0,77,0.00,,OVC016,0.00,VWS V14.01,2013-02-09 13:01:00,
2013-02-09 07:03:00,29.6,23.6,30.32,ESE,119,3.0,7.0,78,0.00,,OVC016,0.00,VWS V14.01,2013-02-09 13:03:00,
2013-02-09 07:04:00,29.6,23.3,30.32,SE,142,0.0,10.0,77,0.00,,OVC016,0.00,VWS V14.01,2013-02-09 13:04:00,
2013-02-09 07:05:00,29.6,23.3,30.32,SE,142,0.0,10.0,77,0.00,,OVC016,0.00,VWS V14.01,2013-02-09 13:05:00,
2013-02-09 07:06:00,29.6,23.6,30.32,SE,142,0.0,10.0,78,0.00,,OVC016,0.00,VWS V14.01,2013-02-09 13:06:00,
2013-02-09 07:08:00,29.6,23.6,30.32,SE,138,5.0,10.0,78,0.00,,OVC016,0.00,VWS V14.01,2013-02-09 13:08:00,
2013-02-09 07:10:00,29.6,23.6,30.32,SE,129,0.0,10.0,78,0.00,,OVC016,0.00,VWS V14.01,2013-02-09 13:10:00,
2013-02-09 07:11:00,29.6,23.6,30.32,East,90,4.0,10.0,78,0.00,,OVC016,0.00,VWS V14.01,2013-02-09 13:11:00,
2013-02-09 07:13:00,29.6,23.6,30.32,SE,128,0.0,10.0,78,0.00,,OVC016,0.00,VWS V14.01,2013-02-09 13:13:00,
2013-02-09 07:15:00,29.6,23.6,30.32,ESE,119,0.0,10.0,78,0.00,,OVC016,0.00,VWS V14.01,2013-02-09 13:15:00,
2013-02-09 07:16:00,29.6,23.6,30.32,ESE,120,0.0,10.0,78,0.00,,OVC016,0.00,VWS V14.01,2013-02-09 13:16:00,
2013-02-09 07:18:00,29.6,23.6,30.32,SE,129,0.0,10.0,78,0.00,,OVC016,0.00,VWS V14.01,2013-02-09 13:18:00,
2013-02-09 07:20:00,29.6,23.6,30.32,SE,130,0.0,10.0,78,0.00,,OVC016,0.00,VWS V14.01,2013-02-09 13:20:00,
2013-02-09 07:21:00,29.6,23.6,30.32,SSE,164,0.0,10.0,78,0.00,,OVC016,0.00,VWS V14.01,2013-02-09 13:21:00,
2013-02-09 07:23:00,29.6,23.6,30.32,SE,146,3.0,10.0,78,0.00,,OVC016,0.00,VWS V14.01,2013-02-09 13:23:00,
2013-02-09 07:25:00,29.4,23.4,30.32,SE,145,4.0,10.0,78,0.00,,OVC016,0.00,VWS V14.01,2013-02-09 13:25:00,
2013-02-09 07:26:00,29.4,23.4,30.32,SSE,148,0.0,10.0,78,0.00,,OVC016,0.00,VWS V14.01,2013-02-09 13:26:00,
2013-02-09 07:28:00,29.6,23.6,30.32,ESE,122,9.0,10.0,78,0.00,,OVC016,0.00,VWS V14.01,2013-02-09 13:28:00,
2013-02-09 07:30:00,29.4,23.4,30.32,SE,137,3.0,6.0,78,0.00,,OVC016,0.00,VWS V14.01,2013-02-09 13:30:00,
2013-02-09 07:31:00,29.4,23.4,30.32,SE,146,6.0,11.0,78,0.00,,OVC016,0.00,VWS V14.01,2013-02-09 13:31:00,
2013-02-09 07:33:00,29.4,23.1,30.32,SE,137,4.0,11.0,77,0.00,,OVC016,0.00,VWS V14.01,2013-02-09 13:33:00,
2013-02-09 07:35:00,29.4,23.1,30.32,SSE,159,2.0,11.0,77,0.00,,OVC016,0.00,VWS V14.01,2013-02-09 13:35:00,
2013-02-09 07:36:00,29.4,23.4,30.32,SSE,167,6.0,11.0,78,0.00,,OVC016,0.00,VWS V14.01,2013-02-09 13:36:00,
2013-02-09 07:38:00,29.6,23.6,30.32,SE,130,0.0,11.0,78,0.00,,OVC016,0.00,VWS V14.01,2013-02-09 13:38:00,
2013-02-09 07:40:00,29.6,23.6,30.32,SSE,159,0.0,11.0,78,0.00,,OVC016,0.00,VWS V14.01,2013-02-09 13:40:00,
2013-02-09 07:41:00,29.6,23.6,30.32,South,183,5.0,11.0,78,0.00,,OVC016,0.00,VWS V14.01,2013-02-09 13:41:00,
2013-02-09 07:43:00,29.6,23.6,30.32,SE,140,10.0,11.0,78,0.00,,OVC016,0.00,VWS V14.01,2013-02-09 13:43:00,
2013-02-09 07:45:00,29.6,23.6,30.31,SE,146,6.0,11.0,78,0.00,,OVC016,0.00,VWS V14.01,2013-02-09 13:45:00,
2013-02-09 07:46:00,29.6,23.6,30.31,SE,126,6.0,11.0,78,0.00,,OVC016,0.00,VWS V14.01,2013-02-09 13:46:00,
2013-02-09 07:48:00,29.6,23.6,30.31,SE,136,0.0,11.0,78,0.00,,OVC016,0.00,VWS V14.01,2013-02-09 13:48:00,
2013-02-09 07:50:00,29.7,23.7,30.31,South,173,6.0,11.0,78,0.00,,OVC016,0.00,VWS V14.01,2013-02-09 13:50:00,
2013-02-09 07:51:00,29.6,23.6,30.31,South,178,5.0,14.0,78,0.00,,OVC016,0.00,VWS V14.01,2013-02-09 13:51:00,
2013-02-09 07:54:00,29.6,23.6,30.31,SE,137,2.0,14.0,78,0.00,,OVC016,0.00,VWS V14.01,2013-02-09 13:54:00,
2013-02-09 07:55:00,29.6,23.6,30.31,SE,144,3.0,14.0,78,0.00,,OVC016,0.00,VWS V14.01,2013-02-09 13:55:00,
2013-02-09 07:56:00,29.6,23.6,30.31,SSE,167,2.0,14.0,78,0.00,,OVC016,0.00,VWS V14.01,2013-02-09 13:56:00,
2013-02-09 07:59:00,29.6,23.6,30.32,South,169,4.0,14.0,78,0.00,,OVC016,0.00,VWS V14.01,2013-02-09 13:59:00,
2013-02-09 08:00:00,29.6,23.3,30.32,South,178,4.0,7.0,77,0.00,,OVC016,0.00,VWS V14.01,2013-02-09 14:00:00,
2013-02-09 08:01:00,29.6,23.3,30.32,South,177,0.0,7.0,77,0.00,,OVC016,0.00,VWS V14.01,2013-02-09 14:01:00,
2013-02-09 08:04:00,29.6,23.3,30.32,SSE,168,5.0,10.0,77,0.00,,OVC014,0.00,VWS V14.01,2013-02-09 14:04:00,
2013-02-09 08:05:00,29.6,23.3,30.32,SSW,192,6.0,10.0,77,0.00,,OVC014,0.00,VWS V14.01,2013-02-09 14:05:00,
2013-02-09 08:06:00,29.6,23.3,30.32,SSE,148,1.0,10.0,77,0.00,,OVC014,0.00,VWS V14.01,2013-02-09 14:06:00,
2013-02-09 08:07:00,29.6,23.3,30.32,SSE,148,2.0,10.0,77,0.00,,OVC014,0.00,VWS V14.01,2013-02-09 14:07:00,
2013-02-09 08:10:00,29.6,23.3,30.32,South,184,4.0,10.0,77,0.00,,OVC014,0.00,VWS V14.01,2013-02-09 14:10:00,
2013-02-09 08:11:00,29.6,23.3,30.32,SE,141,0.0,10.0,77,0.00,,OVC014,0.00,VWS V14.01,2013-02-09 14:11:00,
2013-02-09 08:12:00,29.6,23.3,30.32,SE,140,0.0,10.0,77,0.00,,OVC014,0.00,VWS V14.01,2013-02-09 14:12:00,
2013-02-09 08:15:00,29.7,23.4,30.33,SSE,150,4.0,10.0,77,0.00,,OVC014,0.00,VWS V14.01,2013-02-09 14:15:00,
2013-02-09 08:16:00,29.7,23.4,30.33,South,186,5.0,10.0,77,0.00,,OVC014,0.00,VWS V14.01,2013-02-09 14:16:00,
2013-02-09 08:17:00,29.7,23.4,30.33,SSW,194,7.0,12.0,77,0.00,,OVC014,0.00,VWS V14.01,2013-02-09 14:17:00,
2013-02-09 08:20:00,29.6,23.3,30.33,South,179,3.0,12.0,77,0.00,,OVC014,0.00,VWS V14.01,2013-02-09 14:20:00,
2013-02-09 08:21:00,29.6,23.3,30.33,South,179,6.0,12.0,77,0.00,,OVC014,0.00,VWS V14.01,2013-02-09 14:21:00,
2013-02-09 08:22:00,29.6,23.3,30.33,SSW,200,9.0,12.0,77,0.00,,OVC014,0.00,VWS V14.01,2013-02-09 14:22:00,
2013-02-09 08:25:00,29.6,23.3,30.33,SSE,148,5.0,14.0,77,0.00,,OVC014,0.00,VWS V14.01,2013-02-09 14:25:00,
2013-02-09 08:26:00,29.6,23.3,30.33,South,173,3.0,14.0,77,0.00,,OVC014,0.00,VWS V14.01,2013-02-09 14:26:00,
2013-02-09 08:27:00,29.6,23.3,30.33,SE,143,2.0,14.0,77,0.00,,OVC014,0.00,VWS V14.01,2013-02-09 14:27:00,
2013-02-09 08:30:00,29.6,23.3,30.33,SSE,150,4.0,9.0,77,0.00,,OVC014,0.00,VWS V14.01,2013-02-09 14:30:00,
2013-02-09 08:31:00,29.6,23.3,30.33,ESE,119,4.0,9.0,77,0.00,,OVC014,0.00,VWS V14.01,2013-02-09 14:31:00,
2013-02-09 08:32:00,29.6,23.3,30.33,SE,132,3.0,9.0,77,0.00,,OVC014,0.00,VWS V14.01,2013-02-09 14:32:00,
2013-02-09 08:36:00,29.7,23.4,30.33,SSE,151,0.0,9.0,77,0.00,,OVC014,0.00,VWS V14.01,2013-02-09 14:36:00,
2013-02-09 08:37:00,29.7,23.4,30.33,SSE,151,1.0,9.0,77,0.00,,OVC014,0.00,VWS V14.01,2013-02-09 14:37:00,
2013-02-09 08:41:00,29.7,23.4,30.33,South,190,0.0,9.0,77,0.00,,OVC014,0.00,VWS V14.01,2013-02-09 14:41:00,
2013-02-09 08:42:00,29.9,23.6,30.33,SSE,167,0.0,9.0,77,0.00,,OVC014,0.00,VWS V14.01,2013-02-09 14:42:00,
2013-02-09 08:46:00,29.9,23.6,30.33,South,177,0.0,9.0,77,0.00,,OVC014,0.00,VWS V14.01,2013-02-09 14:46:00,
2013-02-09 08:47:00,29.9,23.6,30.33,South,171,1.0,9.0,77,0.00,,OVC014,0.00,VWS V14.01,2013-02-09 14:47:00,
2013-02-09 08:51:00,29.9,23.6,30.33,South,170,3.0,11.0,77,0.00,,OVC014,0.00,VWS V14.01,2013-02-09 14:51:00,
2013-02-09 08:52:00,29.9,23.6,30.33,South,178,2.0,11.0,77,0.00,,OVC014,0.00,VWS V14.01,2013-02-09 14:52:00,
2013-02-09 08:56:00,29.9,23.6,30.33,SSE,160,3.0,12.0,77,0.00,,OVC014,0.00,VWS V14.01,2013-02-09 14:56:00,
2013-02-09 08:57:00,29.9,23.6,30.33,SE,130,7.0,12.0,77,0.00,,OVC014,0.00,VWS V14.01,2013-02-09 14:57:00,
2013-02-09 08:58:00,29.9,23.6,30.33,ESE,108,4.0,12.0,77,0.00,,OVC014,0.00,VWS V14.01,2013-02-09 14:58:00,
2013-02-09 09:00:00,30.3,23.3,30.33,SSE,161,0.0,11.0,75,0.00,,OVC043,0.00,VWS V14.01,2013-02-09 15:00:00,
2013-02-09 09:01:00,30.0,23.7,30.33,SE,140,1.0,6.0,77,0.00,,OVC014,0.00,VWS V14.01,2013-02-09 15:01:00,
2013-02-09 09:02:00,30.0,23.7,30.33,SE,143,1.0,6.0,77,0.00,,OVC014,0.00,VWS V14.01,2013-02-09 15:02:00,
2013-02-09 09:03:00,30.0,23.7,30.33,SE,137,6.0,6.0,77,0.00,,OVC014,0.00,VWS V14.01,2013-02-09 15:03:00,
2013-02-09 09:07:00,30.0,23.7,30.33,SSE,164,3.0,10.0,77,0.00,,OVC014,0.00,VWS V14.01,2013-02-09 15:07:00,
2013-02-09 09:08:00,30.0,23.7,30.33,South,185,0.0,10.0,77,0.00,,OVC014,0.00,VWS V14.01,2013-02-09 15:08:00,
2013-02-09 09:12:00,30.2,23.9,30.33,SSE,166,5.0,10.0,77,0.00,,OVC014,0.00,VWS V14.01,2013-02-09 15:12:00,
2013-02-09 09:13:00,30.2,23.9,30.33,South,182,3.0,10.0,77,0.00,,OVC014,0.00,VWS V14.01,2013-02-09 15:13:00,
2013-02-09 09:17:00,30.2,23.6,30.33,South,175,2.0,10.0,76,0.00,,OVC014,0.00,VWS V14.01,2013-02-09 15:17:00,
2013-02-09 09:18:00,30.2,23.6,30.33,SE,142,4.0,10.0,76,0.00,,OVC014,0.00,VWS V14.01,2013-02-09 15:18:00,
2013-02-09 09:19:00,30.2,23.6,30.33,South,179,3.0,10.0,76,0.00,,OVC014,0.00,VWS V14.01,2013-02-09 15:19:00,
2013-02-09 09:22:00,30.2,23.6,30.33,South,185,0.0,10.0,76,0.00,,OVC014,0.00,VWS V14.01,2013-02-09 15:22:00,
2013-02-09 09:23:00,30.2,23.6,30.33,SE,144,4.0,10.0,76,0.00,,OVC014,0.00,VWS V14.01,2013-02-09 15:23:00,
2013-02-09 09:24:00,30.2,23.9,30.33,SE,138,4.0,10.0,77,0.00,,OVC014,0.00,VWS V14.01,2013-02-09 15:24:00,
2013-02-09 09:27:00,30.2,23.6,30.33,SSE,165,0.0,10.0,76,0.00,,OVC014,0.00,VWS V14.01,2013-02-09 15:27:00,
2013-02-09 09:28:00,30.2,23.9,30.33,South,177,4.0,10.0,77,0.00,,OVC014,0.00,VWS V14.01,2013-02-09 15:28:00,
2013-02-09 09:29:00,30.3,24.0,30.33,SE,142,0.0,10.0,77,0.00,,OVC014,0.00,VWS V14.01,2013-02-09 15:29:00,
2013-02-09 09:30:00,30.9,24.2,30.32,South,186,5.0,11.0,76,0.00,,OVC043,0.00,VWS V14.01,2013-02-09 15:30:00,
2013-02-09 09:32:00,30.3,24.0,30.33,SE,128,4.0,4.0,77,0.00,,OVC014,0.00,VWS V14.01,2013-02-09 15:32:00,
2013-02-09 09:33:00,30.5,24.2,30.33,SSE,167,3.0,4.0,77,0.00,,OVC014,0.00,VWS V14.01,2013-02-09 15:33:00,
2013-02-09 09:34:00,30.5,24.2,30.33,SSE,165,0.0,4.0,77,0.00,,OVC014,0.00,VWS V14.01,2013-02-09 15:34:00,
2013-02-09 09:37:00,30.5,24.2,30.33,South,182,4.0,6.0,77,0.00,,OVC014,0.00,VWS V14.01,2013-02-09 15:37:00,
2013-02-09 09:38:00,30.5,23.9,30.33,South,190,4.0,8.0,76,0.00,,OVC014,0.00,VWS V14.01,2013-02-09 15:38:00,
2013-02-09 09:39:00,30.5,23.9,30.33,SSW,194,2.0,8.0,76,0.00,,OVC014,0.00,VWS V14.01,2013-02-09 15:39:00,
2013-02-09 09:42:00,30.5,23.9,30.33,South,178,3.0,9.0,76,0.00,,OVC014,0.00,VWS V14.01,2013-02-09 15:42:00,
2013-02-09 09:43:00,30.3,23.7,30.33,SSE,167,6.0,9.0,76,0.00,,OVC014,0.00,VWS V14.01,2013-02-09 15:43:00,
2013-02-09 09:44:00,30.3,23.7,30.33,South,179,0.0,9.0,76,0.00,,OVC014,0.00,VWS V14.01,2013-02-09 15:44:00,
2013-02-09 09:47:00,30.2,23.6,30.33,SE,135,2.0,10.0,76,0.00,,OVC014,0.00,VWS V14.01,2013-02-09 15:47:00,
2013-02-09 09:48:00,30.2,23.6,30.33,SSE,155,4.0,10.0,76,0.00,,OVC014,0.00,VWS V14.01,2013-02-09 15:48:00,
2013-02-09 09:49:00,30.3,23.7,30.33,SSE,162,3.0,10.0,76,0.00,,OVC014,0.00,VWS V14.01,2013-02-09 15:49:00,
2013-02-09 09:52:00,30.3,23.7,30.33,SSE,152,2.0,10.0,76,0.00,,OVC014,0.00,VWS V14.01,2013-02-09 15:52:00,
2013-02-09 09:53:00,30.3,23.7,30.33,SSE,152,0.0,10.0,76,0.00,,OVC014,0.00,VWS V14.01,2013-02-09 15:53:00,
2013-02-09 09:54:00,30.3,23.7,30.33,SE,140,2.0,10.0,76,0.00,,OVC014,0.00,VWS V14.01,2013-02-09 15:54:00,
2013-02-09 09:57:00,30.3,23.3,30.33,SSE,160,3.0,10.0,75,0.00,,OVC014,0.00,VWS V14.01,2013-02-09 15:57:00,
2013-02-09 09:58:00,30.3,23.3,30.33,ESE,105,3.0,10.0,75,0.00,,OVC014,0.00,VWS V14.01,2013-02-09 15:58:00,
2013-02-09 09:59:00,30.3,23.3,30.33,SSE,161,0.0,11.0,75,0.00,,OVC014,0.00,VWS V14.01,2013-02-09 15:59:00,
2013-02-09 10:00:00,31.4,24.7,30.31,ESE,103,5.0,12.0,76,0.00,,OVC043,0.00,VWS V14.01,2013-02-09 16:00:00,
2013-02-09 10:03:00,30.5,23.5,30.33,SE,139,0.0,6.0,75,0.00,,OVC014,0.00,VWS V14.01,2013-02-09 16:03:00,
2013-02-09 10:05:00,30.6,23.6,30.33,SE,129,0.0,6.0,75,0.00,,OVC014,0.00,VWS V14.01,2013-02-09 16:05:00,
2013-02-09 10:08:00,30.6,23.6,30.33,SSE,150,2.0,11.0,75,0.00,,OVC014,0.00,VWS V14.01,2013-02-09 16:08:00,
2013-02-09 10:10:00,30.6,23.6,30.33,SSE,153,3.0,11.0,75,0.00,,OVC014,0.00,VWS V14.01,2013-02-09 16:10:00,
2013-02-09 10:13:00,30.6,24.0,30.33,SE,138,3.0,11.0,76,0.00,,OVC014,0.00,VWS V14.01,2013-02-09 16:13:00,
2013-02-09 10:16:00,30.8,24.1,30.31,SSE,165,4.0,11.0,76,0.00,,OVC014,0.00,VWS V14.01,2013-02-09 16:16:00,
2013-02-09 10:18:00,30.8,24.1,30.31,SSE,166,4.0,11.0,76,0.00,,OVC014,0.00,VWS V14.01,2013-02-09 16:18:00,
2013-02-09 10:19:00,30.8,24.1,30.31,SSE,164,4.0,11.0,76,0.00,,OVC014,0.00,VWS V14.01,2013-02-09 16:19:00,
2013-02-09 10:21:00,30.8,24.1,30.31,SE,144,3.0,11.0,76,0.00,,OVC014,0.00,VWS V14.01,2013-02-09 16:21:00,
2013-02-09 10:23:00,30.9,24.2,30.31,SSE,161,2.0,11.0,76,0.00,,OVC014,0.00,VWS V14.01,2013-02-09 16:23:00,
2013-02-09 10:24:00,30.9,24.2,30.31,SE,134,2.0,11.0,76,0.00,,OVC014,0.00,VWS V14.01,2013-02-09 16:24:00,
2013-02-09 10:26:00,30.9,24.5,30.31,SSW,200,6.0,11.0,77,0.00,,OVC014,0.00,VWS V14.01,2013-02-09 16:26:00,
2013-02-09 10:28:00,30.9,24.2,30.31,SSE,166,6.0,11.0,76,0.00,,OVC014,0.00,VWS V14.01,2013-02-09 16:28:00,
2013-02-09 10:29:00,30.9,24.2,30.32,SSW,194,4.0,11.0,76,0.00,,OVC014,0.00,VWS V14.01,2013-02-09 16:29:00,
2013-02-09 10:30:00,32.4,25.0,30.30,SE,134,7.0,15.0,74,0.00,,OVC043,0.00,VWS V14.01,2013-02-09 16:30:00,
2013-02-09 10:31:00,30.9,24.2,30.32,SSE,157,3.0,7.0,76,0.00,,OVC014,0.00,VWS V14.01,2013-02-09 16:31:00,
2013-02-09 10:33:00,30.9,24.2,30.32,SSE,157,1.0,8.0,76,0.00,,OVC014,0.00,VWS V14.01,2013-02-09 16:33:00,
2013-02-09 10:34:00,30.9,24.2,30.32,SSE,157,0.0,8.0,76,0.00,,OVC014,0.00,VWS V14.01,2013-02-09 16:34:00,
2013-02-09 10:36:00,31.1,24.4,30.32,South,181,4.0,8.0,76,0.00,,OVC014,0.00,VWS V14.01,2013-02-09 16:36:00,
2013-02-09 10:38:00,31.2,24.5,30.32,SE,132,7.0,12.0,76,0.00,,OVC014,0.00,VWS V14.01,2013-02-09 16:38:00,
2013-02-09 10:39:00,31.2,24.5,30.32,SSE,153,3.0,12.0,76,0.00,,OVC014,0.00,VWS V14.01,2013-02-09 16:39:00,
2013-02-09 10:41:00,31.2,24.5,30.32,SSW,194,3.0,12.0,76,0.00,,OVC014,0.00,VWS V14.01,2013-02-09 16:41:00,
2013-02-09 10:43:00,31.4,24.7,30.32,South,186,5.0,12.0,76,0.00,,OVC014,0.00,VWS V14.01,2013-02-09 16:43:00,
2013-02-09 10:44:00,31.4,24.7,30.31,South,174,2.0,12.0,76,0.00,,OVC014,0.00,VWS V14.01,2013-02-09 16:44:00,
2013-02-09 10:46:00,31.4,24.7,30.31,SE,130,5.0,12.0,76,0.00,,OVC014,0.00,VWS V14.01,2013-02-09 16:46:00,
2013-02-09 10:49:00,31.4,24.4,30.31,SE,144,5.0,12.0,75,0.00,,OVC014,0.00,VWS V14.01,2013-02-09 16:49:00,
2013-02-09 10:51:00,31.4,24.4,30.31,South,173,6.0,12.0,75,0.00,,OVC014,0.00,VWS V14.01,2013-02-09 16:51:00,
2013-02-09 10:54:00,31.2,24.2,30.31,South,182,7.0,12.0,75,0.00,,OVC014,0.00,VWS V14.01,2013-02-09 16:54:00,
2013-02-09 10:56:00,31.2,24.2,30.31,SE,134,6.0,12.0,75,0.00,,OVC014,0.00,VWS V14.01,2013-02-09 16:56:00,
2013-02-09 10:59:00,31.4,24.4,30.31,ESE,117,6.0,12.0,75,0.00,,OVC014,0.00,VWS V14.01,2013-02-09 16:59:00,
2013-02-09 11:00:00,32.8,25.1,30.27,South,180,5.0,15.0,73,0.00,,OVC043,0.00,VWS V14.01,2013-02-09 17:00:00,
2013-02-09 11:01:00,31.4,24.4,30.31,SE,128,5.0,10.0,75,0.00,,OVC014,0.00,VWS V14.01,2013-02-09 17:01:00,
2013-02-09 11:04:00,31.5,24.5,30.31,SE,146,4.0,10.0,75,0.00,,OVC014,0.00,VWS V14.01,2013-02-09 17:04:00,
2013-02-09 11:05:00,31.5,24.5,30.31,SSW,210,6.0,10.0,75,0.00,,OVC014,0.00,VWS V14.01,2013-02-09 17:05:00,
2013-02-09 11:06:00,31.7,24.7,30.31,South,186,9.0,13.0,75,0.00,,OVC014,0.00,VWS V14.01,2013-02-09 17:06:00,
2013-02-09 11:09:00,31.7,24.7,30.31,South,171,5.0,13.0,75,0.00,,OVC014,0.00,VWS V14.01,2013-02-09 17:09:00,
2013-02-09 11:10:00,31.7,24.7,30.31,South,178,4.0,13.0,75,0.00,,OVC014,0.00,VWS V14.01,2013-02-09 17:10:00,
2013-02-09 11:12:00,31.7,24.7,30.31,SSW,192,4.0,13.0,75,0.00,,OVC014,0.00,VWS V14.01,2013-02-09 17:12:00,
2013-02-09 11:14:00,31.8,24.8,30.31,SE,134,5.0,13.0,75,0.00,,OVC014,0.00,VWS V14.01,2013-02-09 17:14:00,
2013-02-09 11:15:00,31.8,24.8,30.31,SE,132,6.0,13.0,75,0.00,,OVC014,0.00,VWS V14.01,2013-02-09 17:15:00,
2013-02-09 11:17:00,31.8,24.5,30.31,ESE,119,7.0,13.0,74,0.00,,OVC014,0.00,VWS V14.01,2013-02-09 17:17:00,
2013-02-09 11:20:00,31.8,24.8,30.31,SSW,196,10.0,15.0,75,0.00,,OVC014,0.00,VWS V14.01,2013-02-09 17:20:00,
2013-02-09 11:22:00,31.8,24.8,30.31,SE,129,4.0,15.0,75,0.00,,OVC014,0.00,VWS V14.01,2013-02-09 17:22:00,
2013-02-09 11:25:00,32.0,25.0,30.31,SSE,163,0.0,15.0,75,0.00,,OVC014,0.00,VWS V14.01,2013-02-09 17:25:00,
2013-02-09 11:27:00,32.3,25.3,30.31,South,182,6.0,15.0,75,0.00,,OVC014,0.00,VWS V14.01,2013-02-09 17:27:00,
2013-02-09 11:30:00,32.4,25.0,30.30,SSE,148,2.0,7.0,74,0.00,,OVC014,0.00,VWS V14.01,2013-02-09 17:30:00,
2013-02-09 11:32:00,32.4,24.7,30.30,SE,125,10.0,10.0,73,0.00,,OVC014,0.00,VWS V14.01,2013-02-09 17:32:00,
2013-02-09 11:35:00,32.4,24.7,30.30,ESE,121,5.0,10.0,73,0.00,,OVC014,0.00,VWS V14.01,2013-02-09 17:35:00,
2013-02-09 11:36:00,32.4,24.7,30.30,South,170,5.0,10.0,73,0.00,,OVC014,0.00,VWS V14.01,2013-02-09 17:36:00,
2013-02-09 11:37:00,32.4,24.7,30.30,SSE,162,2.0,10.0,73,0.00,,OVC014,0.00,VWS V14.01,2013-02-09 17:37:00,
2013-02-09 11:40:00,32.4,25.0,30.30,South,174,4.0,10.0,74,0.00,,OVC014,0.00,VWS V14.01,2013-02-09 17:40:00,
2013-02-09 11:41:00,32.6,24.9,30.30,South,178,5.0,10.0,73,0.00,,OVC014,0.00,VWS V14.01,2013-02-09 17:41:00,
2013-02-09 11:42:00,32.6,24.9,30.30,South,175,0.0,10.0,73,0.00,,OVC014,0.00,VWS V14.01,2013-02-09 17:42:00,
2013-02-09 11:45:00,32.6,24.9,30.28,South,191,6.0,10.0,73,0.00,,OVC014,0.00,VWS V14.01,2013-02-09 17:45:00,
2013-02-09 11:46:00,32.4,24.7,30.28,SE,132,1.0,10.0,73,0.00,,OVC016,0.00,VWS V14.01,2013-02-09 17:46:00,
2013-02-09 11:47:00,32.4,24.7,30.28,SSE,147,4.0,10.0,73,0.00,,OVC016,0.00,VWS V14.01,2013-02-09 17:47:00,
2013-02-09 11:50:00,32.6,25.2,30.28,South,170,4.0,10.0,74,0.00,,OVC016,0.00,VWS V14.01,2013-02-09 17:50:00,
2013-02-09 11:51:00,32.6,25.2,30.28,ESE,112,5.0,10.0,74,0.00,,OVC016,0.00,VWS V14.01,2013-02-09 17:51:00,
2013-02-09 11:52:00,32.7,25.3,30.28,SSW,202,7.0,12.0,74,0.00,,OVC016,0.00,VWS V14.01,2013-02-09 17:52:00,
2013-02-09 11:55:00,32.7,25.0,30.28,SE,143,7.0,15.0,73,0.00,,OVC016,0.00,VWS V14.01,2013-02-09 17:55:00,
2013-02-09 11:56:00,32.7,25.0,30.28,SE,134,9.0,15.0,73,0.00,,OVC016,0.00,VWS V14.01,2013-02-09 17:56:00,
2013-02-09 11:58:00,32.7,25.0,30.28,SE,130,6.0,15.0,73,0.00,,OVC016,0.00,VWS V14.01,2013-02-09 17:58:00,
2013-02-09 12:00:00,32.8,25.1,30.27,ESE,116,3.0,5.0,73,0.00,,OVC016,0.00,VWS V14.01,2013-02-09 18:00:00,
2013-02-09 12:01:00,32.8,25.1,30.27,ESE,117,5.0,10.0,73,0.00,,OVC016,0.00,VWS V14.01,2013-02-09 18:01:00,
2013-02-09 12:02:00,32.8,25.1,30.27,SE,131,6.0,10.0,73,0.00,,OVC016,0.00,VWS V14.01,2013-02-09 18:02:00,
2013-02-09 12:03:00,32.8,25.1,30.27,SE,140,4.0,10.0,73,0.00,,OVC016,0.00,VWS V14.01,2013-02-09 18:03:00,
2013-02-09 12:05:00,33.1,25.4,30.27,SSE,167,5.0,12.0,73,0.00,,OVC016,0.00,VWS V14.01,2013-02-09 18:05:00,
2013-02-09 12:06:00,33.3,25.6,30.27,South,184,3.0,12.0,73,0.00,,OVC016,0.00,VWS V14.01,2013-02-09 18:06:00,
2013-02-09 12:07:00,33.3,25.6,30.27,SSW,205,5.0,12.0,73,0.00,,OVC016,0.00,VWS V14.01,2013-02-09 18:07:00,
2013-02-09 12:08:00,33.4,25.7,30.27,South,178,4.0,12.0,73,0.00,,OVC016,0.00,VWS V14.01,2013-02-09 18:08:00,
2013-02-09 12:10:00,33.6,25.5,30.27,South,175,4.0,12.0,72,0.00,,OVC016,0.00,VWS V14.01,2013-02-09 18:10:00,
2013-02-09 12:11:00,33.7,25.6,30.27,SSE,157,7.0,12.0,72,0.00,,OVC016,0.00,VWS V14.01,2013-02-09 18:11:00,
2013-02-09 12:12:00,33.7,25.6,30.27,SE,137,7.0,12.0,72,0.00,,OVC016,0.00,VWS V14.01,2013-02-09 18:12:00,
2013-02-09 12:13:00,33.7,25.6,30.27,SE,140,5.0,12.0,72,0.00,,OVC016,0.00,VWS V14.01,2013-02-09 18:13:00,
2013-02-09 12:15:00,33.9,25.5,30.27,South,170,4.0,12.0,71,0.00,,OVC016,0.00,VWS V14.01,2013-02-09 18:15:00,
2013-02-09 12:16:00,33.9,25.5,30.27,SSE,156,4.0,12.0,71,0.00,,OVC016,0.00,VWS V14.01,2013-02-09 18:16:00,
2013-02-09 12:17:00,33.7,25.0,30.27,South,178,3.0,12.0,70,0.00,,OVC016,0.00,VWS V14.01,2013-02-09 18:17:00,
2013-02-09 12:18:00,33.9,25.5,30.27,South,169,4.0,12.0,71,0.00,,OVC016,0.00,VWS V14.01,2013-02-09 18:18:00,
2013-02-09 12:20:00,34.0,25.6,30.27,South,169,3.0,12.0,71,0.00,,OVC016,0.00,VWS V14.01,2013-02-09 18:20:00,
2013-02-09 12:21:00,34.0,25.6,30.27,South,180,8.0,13.0,71,0.00,,OVC016,0.00,VWS V14.01,2013-02-09 18:21:00,
2013-02-09 12:22:00,34.0,25.6,30.27,SW,218,11.0,16.0,71,0.00,,OVC016,0.00,VWS V14.01,2013-02-09 18:22:00,
2013-02-09 12:23:00,34.0,25.3,30.27,SSE,150,4.0,16.0,70,0.00,,OVC016,0.00,VWS V14.01,2013-02-09 18:23:00,
2013-02-09 12:25:00,34.2,25.8,30.27,SE,138,4.0,16.0,71,0.00,,OVC016,0.00,VWS V14.01,2013-02-09 18:25:00,
2013-02-09 12:26:00,34.2,25.8,30.27,SE,127,5.0,16.0,71,0.00,,OVC016,0.00,VWS V14.01,2013-02-09 18:26:00,
2013-02-09 12:27:00,34.2,25.8,30.27,SE,130,5.0,16.0,71,0.00,,OVC016,0.00,VWS V14.01,2013-02-09 18:27:00,
2013-02-09 12:28:00,34.2,25.5,30.27,SE,138,5.0,16.0,70,0.00,,OVC016,0.00,VWS V14.01,2013-02-09 18:28:00,
2013-02-09 12:30:00,34.5,25.7,30.26,South,178,5.0,12.0,70,0.00,,OVC016,0.00,VWS V14.01,2013-02-09 18:30:00,
2013-02-09 12:31:00,34.5,25.7,30.26,South,169,6.0,12.0,70,0.00,,OVC016,0.00,VWS V14.01,2013-02-09 18:31:00,
2013-02-09 12:32:00,34.5,25.7,30.26,SSW,196,3.0,12.0,70,0.00,,OVC016,0.00,VWS V14.01,2013-02-09 18:32:00,
2013-02-09 12:33:00,34.6,25.8,30.26,SSW,196,4.0,12.0,70,0.00,,OVC016,0.00,VWS V14.01,2013-02-09 18:33:00,
2013-02-09 12:35:00,34.9,26.1,30.26,SSW,202,7.0,12.0,70,0.00,,OVC016,0.00,VWS V14.01,2013-02-09 18:35:00,
2013-02-09 12:36:00,34.9,25.8,30.26,SSE,159,4.0,12.0,69,0.00,,OVC016,0.00,VWS V14.01,2013-02-09 18:36:00,
2013-02-09 12:37:00,35.1,26.3,30.26,SSE,152,9.0,12.0,70,0.00,,OVC016,0.00,VWS V14.01,2013-02-09 18:37:00,
2013-02-09 12:38:00,35.2,26.1,30.26,SSE,167,4.0,12.0,69,0.00,,OVC016,0.00,VWS V14.01,2013-02-09 18:38:00,
2013-02-09 12:41:00,35.1,26.0,30.26,SSE,159,5.0,12.0,69,0.00,,OVC016,0.00,VWS V14.01,2013-02-09 18:41:00,
2013-02-09 12:42:00,34.9,25.8,30.26,SSE,159,3.0,12.0,69,0.00,,OVC016,0.00,VWS V14.01,2013-02-09 18:42:00,
2013-02-09 12:43:00,34.8,25.7,30.26,SE,133,2.0,12.0,69,0.00,,OVC016,0.00,VWS V14.01,2013-02-09 18:43:00,
2013-02-09 12:46:00,34.8,26.0,30.25,ESE,118,9.0,12.0,70,0.00,,SCT016,0.00,VWS V14.01,2013-02-09 18:46:00,
2013-02-09 12:48:00,34.9,26.1,30.25,South,182,5.0,12.0,70,0.00,,SCT016,0.00,VWS V14.01,2013-02-09 18:48:00,
2013-02-09 12:49:00,34.9,26.1,30.25,ESE,111,5.0,12.0,70,0.00,,SCT016,0.00,VWS V14.01,2013-02-09 18:49:00,
2013-02-09 12:51:00,35.1,26.0,30.25,ESE,122,14.0,15.0,69,0.00,,SCT016,0.00,VWS V14.01,2013-02-09 18:51:00,
2013-02-09 12:52:00,34.9,25.8,30.25,South,173,2.0,15.0,69,0.00,,SCT016,0.00,VWS V14.01,2013-02-09 18:52:00,
2013-02-09 12:53:00,34.9,25.8,30.25,South,178,6.0,15.0,69,0.00,,SCT016,0.00,VWS V14.01,2013-02-09 18:53:00,
2013-02-09 12:54:00,34.9,26.1,30.25,South,177,5.0,15.0,70,0.00,,SCT016,0.00,VWS V14.01,2013-02-09 18:54:00,
2013-02-09 12:56:00,35.1,26.0,30.25,SE,132,5.0,15.0,69,0.00,,SCT016,0.00,VWS V14.01,2013-02-09 18:56:00,
2013-02-09 12:57:00,35.2,26.1,30.25,SSW,202,10.0,15.0,69,0.00,,SCT016,0.00,VWS V14.01,2013-02-09 18:57:00,
2013-02-09 13:00:00,37.8,27.1,30.19,SSW,196,11.0,15.0,65,0.00,,OVC043,0.00,VWS V14.01,2013-02-09 19:00:00,
2013-02-09 13:30:00,38.8,28.1,30.18,South,172,4.0,15.0,65,0.00,,OVC043,0.00,VWS V14.01,2013-02-09 19:30:00,
2013-02-09 14:00:00,39.4,27.9,30.17,South,169,6.0,13.0,63,0.00,,OVC043,0.00,VWS V14.01,2013-02-09 20:00:00,
2013-02-09 14:24:00,38.7,27.6,30.18,SSE,158,6.0,15.0,64,0.00,,SCT016,0.00,VWS V14.01,2013-02-09 20:24:00,
2013-02-09 14:25:00,38.7,27.6,30.18,ESE,122,4.0,15.0,64,0.00,,SCT016,0.00,VWS V14.01,2013-02-09 20:25:00,
2013-02-09 14:29:00,38.8,28.1,30.18,SSE,157,4.0,15.0,65,0.00,,SCT016,0.00,VWS V14.01,2013-02-09 20:29:00,
2013-02-09 14:30:00,38.8,28.1,30.18,SE,136,7.0,7.0,65,0.00,,SCT016,0.00,VWS V14.01,2013-02-09 20:30:00,
2013-02-09 14:34:00,38.7,28.0,30.18,SE,133,6.0,10.0,65,0.00,,SCT016,0.00,VWS V14.01,2013-02-09 20:34:00,
2013-02-09 14:35:00,38.7,28.0,30.18,ESE,118,4.0,10.0,65,0.00,,SCT016,0.00,VWS V14.01,2013-02-09 20:35:00,
2013-02-09 14:39:00,38.8,28.1,30.18,SE,134,6.0,11.0,65,0.00,,SCT016,0.00,VWS V14.01,2013-02-09 20:39:00,
2013-02-09 14:40:00,38.8,28.1,30.18,South,188,5.0,11.0,65,0.00,,SCT016,0.00,VWS V14.01,2013-02-09 20:40:00,
2013-02-09 14:45:00,39.1,28.3,30.17,SE,140,7.0,11.0,65,0.00,,SCT016,0.00,VWS V14.01,2013-02-09 20:45:00,
2013-02-09 14:50:00,39.2,28.1,30.17,SE,134,3.0,11.0,64,0.00,,CLR,0.00,VWS V14.01,2013-02-09 20:50:00,
2013-02-09 14:55:00,39.4,28.2,30.17,SSE,159,3.0,12.0,64,0.00,,CLR,0.00,VWS V14.01,2013-02-09 20:55:00,
2013-02-09 15:00:00,39.4,27.9,30.17,SE,134,9.0,9.0,63,0.00,,CLR,0.00,VWS V14.01,2013-02-09 21:00:00,
2013-02-09 15:05:00,39.2,28.1,30.17,South,169,4.0,12.0,64,0.00,,CLR,0.00,VWS V14.01,2013-02-09 21:05:00,
2013-02-09 15:06:00,39.4,28.2,30.17,SE,141,3.0,12.0,64,0.00,,CLR,0.00,VWS V14.01,2013-02-09 21:06:00,
2013-02-09 15:10:00,39.2,28.1,30.17,SSE,147,5.0,13.0,64,0.00,,CLR,0.00,VWS V14.01,2013-02-09 21:10:00,
2013-02-09 15:11:00,39.2,28.1,30.17,SE,144,3.0,13.0,64,0.00,,CLR,0.00,VWS V14.01,2013-02-09 21:11:00,
2013-02-09 15:15:00,39.5,28.7,30.16,SE,135,6.0,13.0,65,0.00,,CLR,0.00,VWS V14.01,2013-02-09 21:15:00,
2013-02-09 15:16:00,39.5,28.7,30.16,South,188,6.0,13.0,65,0.00,,CLR,0.00,VWS V14.01,2013-02-09 21:16:00,
2013-02-09 15:20:00,39.8,29.0,30.16,SSE,160,3.0,13.0,65,0.00,,CLR,0.00,VWS V14.01,2013-02-09 21:20:00,
2013-02-09 15:21:00,39.8,29.0,30.16,SSE,162,1.0,13.0,65,0.00,,CLR,0.00,VWS V14.01,2013-02-09 21:21:00,
2013-02-09 15:25:00,40.0,28.8,30.16,SE,136,6.0,13.0,64,0.00,,CLR,0.00,VWS V14.01,2013-02-09 21:25:00,
2013-02-09 15:26:00,40.0,28.8,30.16,SE,137,7.0,13.0,64,0.00,,CLR,0.00,VWS V14.01,2013-02-09 21:26:00,
2013-02-09 15:30:00,40.1,28.9,30.15,South,177,5.0,5.0,64,0.00,,CLR,0.00,VWS V14.01,2013-02-09 21:30:00,
2013-02-09 15:31:00,40.1,28.9,30.15,South,174,2.0,5.0,64,0.00,,CLR,0.00,VWS V14.01,2013-02-09 21:31:00,
2013-02-09 15:35:00,40.2,29.0,30.15,South,173,4.0,10.0,64,0.00,,CLR,0.00,VWS V14.01,2013-02-09 21:35:00,
2013-02-09 15:36:00,40.2,29.0,30.15,ESE,117,7.0,10.0,64,0.00,,CLR,0.00,VWS V14.01,2013-02-09 21:36:00,
2013-02-09 15:40:00,40.4,29.2,30.15,SE,144,5.0,11.0,64,0.00,,CLR,0.00,VWS V14.01,2013-02-09 21:40:00,
2013-02-09 15:41:00,40.2,29.0,30.15,East,101,5.0,11.0,64,0.00,,CLR,0.00,VWS V14.01,2013-02-09 21:41:00,
2013-02-09 15:45:00,40.2,29.0,30.14,ESE,117,6.0,12.0,64,0.00,,CLR,0.00,VWS V14.01,2013-02-09 21:45:00,
2013-02-09 15:46:00,40.2,29.0,30.14,ESE,117,7.0,12.0,64,0.00,,CLR,0.00,VWS V14.01,2013-02-09 21:46:00,
2013-02-09 15:50:00,40.4,29.6,30.14,SE,143,4.0,12.0,65,0.00,,CLR,0.00,VWS V14.01,2013-02-09 21:50:00,
2013-02-09 15:51:00,40.4,29.6,30.14,South,169,5.0,12.0,65,0.00,,CLR,0.00,VWS V14.01,2013-02-09 21:51:00,
2013-02-09 15:55:00,40.7,29.9,30.14,ESE,102,9.0,12.0,65,0.00,,CLR,0.00,VWS V14.01,2013-02-09 21:55:00,
2013-02-09 15:56:00,40.7,29.9,30.14,ESE,116,6.0,12.0,65,0.00,,CLR,0.00,VWS V14.01,2013-02-09 21:56:00,
2013-02-09 16:00:00,40.7,29.9,30.13,ESE,105,6.0,6.0,65,0.00,,CLR,0.00,VWS V14.01,2013-02-09 22:00:00,
2013-02-09 16:01:00,40.7,29.9,30.13,ESE,115,4.0,6.0,65,0.00,,CLR,0.00,VWS V14.01,2013-02-09 22:01:00,
2013-02-09 16:06:00,40.5,29.7,30.13,ESE,122,5.0,10.0,65,0.00,,CLR,0.00,VWS V14.01,2013-02-09 22:06:00,
2013-02-09 16:11:00,40.5,29.7,30.13,SE,146,5.0,12.0,65,0.00,,CLR,0.00,VWS V14.01,2013-02-09 22:11:00,
2013-02-09 16:16:00,40.4,30.0,30.12,SE,134,12.0,12.0,66,0.00,,CLR,0.00,VWS V14.01,2013-02-09 22:16:00,
2013-02-09 16:17:00,40.4,30.0,30.12,ESE,123,6.0,12.0,66,0.00,,CLR,0.00,VWS V14.01,2013-02-09 22:17:00,
2013-02-09 16:21:00,40.4,30.0,30.12,SE,141,1.0,12.0,66,0.00,,CLR,0.00,VWS V14.01,2013-02-09 22:21:00,
2013-02-09 16:22:00,40.4,30.0,30.12,South,176,4.0,12.0,66,0.00,,CLR,0.00,VWS V14.01,2013-02-09 22:22:00,
2013-02-09 16:26:00,40.5,30.0,30.12,SE,137,1.0,12.0,66,0.00,,CLR,0.00,VWS V14.01,2013-02-09 22:26:00,
2013-02-09 16:27:00,40.5,30.0,30.12,SE,140,0.0,12.0,66,0.00,,CLR,0.00,VWS V14.01,2013-02-09 22:27:00,
2013-02-09 16:30:00,39.4,29.7,30.09,SE,131,2.0,14.0,68,0.00,,OVC043,0.00,VWS V14.01,2013-02-09 22:30:00,
2013-02-09 16:31:00,40.5,30.0,30.11,ESE,123,5.0,9.0,66,0.00,,CLR,0.00,VWS V14.01,2013-02-09 22:31:00,
2013-02-09 16:32:00,40.5,30.0,30.11,SE,134,6.0,9.0,66,0.00,,CLR,0.00,VWS V14.01,2013-02-09 22:32:00,
2013-02-09 16:36:00,40.5,30.0,30.11,SE,140,5.0,9.0,66,0.00,,CLR,0.00,VWS V14.01,2013-02-09 22:36:00,
2013-02-09 16:37:00,40.5,30.0,30.11,SSE,148,3.0,9.0,66,0.00,,CLR,0.00,VWS V14.01,2013-02-09 22:37:00,
2013-02-09 16:41:00,40.5,30.0,30.11,SE,144,0.0,9.0,66,0.00,,CLR,0.00,VWS V14.01,2013-02-09 22:41:00,
2013-02-09 16:42:00,40.5,30.0,30.11,SE,146,3.0,9.0,66,0.00,,CLR,0.00,VWS V14.01,2013-02-09 22:42:00,
2013-02-09 16:46:00,40.5,29.7,30.11,SE,140,4.0,9.0,65,0.00,,CLR,0.00,VWS V14.01,2013-02-09 22:46:00,
2013-02-09 16:47:00,40.5,29.7,30.11,SE,143,2.0,9.0,65,0.00,,CLR,0.00,VWS V14.01,2013-02-09 22:47:00,
2013-02-09 16:51:00,40.5,29.7,30.11,ESE,103,1.0,12.0,65,0.00,,CLR,0.00,VWS V14.01,2013-02-09 22:51:00,
2013-02-09 16:52:00,40.5,29.7,30.11,SE,130,0.0,12.0,65,0.00,,CLR,0.00,VWS V14.01,2013-02-09 22:52:00,
2013-02-09 16:56:00,40.5,29.7,30.11,SE,138,1.0,12.0,65,0.00,,CLR,0.00,VWS V14.01,2013-02-09 22:56:00,
2013-02-09 16:57:00,40.5,29.7,30.11,SE,133,0.0,12.0,65,0.00,,CLR,0.00,VWS V14.01,2013-02-09 22:57:00,
2013-02-09 16:58:00,40.4,29.6,30.11,ESE,119,4.0,12.0,65,0.00,,CLR,0.00,VWS V14.01,2013-02-09 22:58:00,
2013-02-09 17:00:00,38.7,29.8,30.09,SE,146,2.0,13.0,70,0.00,,OVC043,0.00,VWS V14.01,2013-02-09 23:00:00,
2013-02-09 17:01:00,40.4,29.6,30.11,SE,136,0.0,10.0,65,0.00,,CLR,0.00,VWS V14.01,2013-02-09 23:01:00,
2013-02-09 17:02:00,40.4,29.6,30.11,SE,138,6.0,10.0,65,0.00,,CLR,0.00,VWS V14.01,2013-02-09 23:02:00,
2013-02-09 17:03:00,40.4,29.6,30.11,ESE,123,7.0,10.0,65,0.00,,CLR,0.00,VWS V14.01,2013-02-09 23:03:00,
2013-02-09 17:06:00,40.2,29.8,30.11,SE,131,3.0,10.0,66,0.00,,CLR,0.00,VWS V14.01,2013-02-09 23:06:00,
2013-02-09 17:07:00,40.2,29.8,30.11,SE,127,6.0,10.0,66,0.00,,CLR,0.00,VWS V14.01,2013-02-09 23:07:00,
2013-02-09 17:08:00,40.2,29.8,30.11,SE,128,3.0,10.0,66,0.00,,CLR,0.00,VWS V14.01,2013-02-09 23:08:00,
2013-02-09 17:11:00,40.1,30.0,30.11,ESE,104,0.0,11.0,67,0.00,,CLR,0.00,VWS V14.01,2013-02-09 23:11:00,
2013-02-09 17:13:00,40.1,30.0,30.11,SE,138,11.0,14.0,67,0.00,,CLR,0.00,VWS V14.01,2013-02-09 23:13:00,
2013-02-09 17:17:00,40.0,29.9,30.09,SE,138,3.0,14.0,67,0.00,,CLR,0.00,VWS V14.01,2013-02-09 23:17:00,
2013-02-09 17:18:00,39.8,29.8,30.09,SE,143,0.0,14.0,67,0.00,,CLR,0.00,VWS V14.01,2013-02-09 23:18:00,
2013-02-09 17:22:00,39.7,30.0,30.09,ESE,109,3.0,14.0,68,0.00,,CLR,0.00,VWS V14.01,2013-02-09 23:22:00,
2013-02-09 17:23:00,39.7,30.0,30.09,SE,124,1.0,14.0,68,0.00,,CLR,0.00,VWS V14.01,2013-02-09 23:23:00,
2013-02-09 17:27:00,39.5,29.8,30.09,ESE,118,3.0,14.0,68,0.00,,CLR,0.00,VWS V14.01,2013-02-09 23:27:00,
2013-02-09 17:28:00,39.5,29.8,30.09,SE,126,3.0,14.0,68,0.00,,CLR,0.00,VWS V14.01,2013-02-09 23:28:00,
2013-02-09 17:30:00,38.5,29.6,30.09,SE,138,6.0,14.0,70,0.00,,OVC043,0.00,VWS V14.01,2013-02-09 23:30:00,
2013-02-09 17:32:00,39.4,30.1,30.09,SE,132,5.0,9.0,69,0.00,,CLR,0.00,VWS V14.01,2013-02-09 23:32:00,
2013-02-09 17:33:00,39.2,29.5,30.09,ESE,123,6.0,13.0,68,0.00,,CLR,0.00,VWS V14.01,2013-02-09 23:33:00,
2013-02-09 17:37:00,39.2,29.9,30.09,SE,130,2.0,13.0,69,0.00,,CLR,0.00,VWS V14.01,2013-02-09 23:37:00,
2013-02-09 17:38:00,39.1,29.8,30.09,SE,143,3.0,13.0,69,0.00,,CLR,0.00,VWS V14.01,2013-02-09 23:38:00,
2013-02-09 17:42:00,39.1,29.8,30.09,ESE,114,4.0,13.0,69,0.00,,CLR,0.00,VWS V14.01,2013-02-09 23:42:00,
2013-02-09 17:43:00,39.0,29.7,30.09,SSE,148,4.0,13.0,69,0.00,,CLR,0.00,VWS V14.01,2013-02-09 23:43:00,
2013-02-09 17:47:00,38.8,29.5,30.09,SSE,151,4.0,13.0,69,0.00,,CLR,0.00,VWS V14.01,2013-02-09 23:47:00,
2013-02-09 17:48:00,38.8,29.5,30.09,ESE,111,4.0,13.0,69,0.00,,CLR,0.00,VWS V14.01,2013-02-09 23:48:00,
2013-02-09 17:52:00,38.8,29.5,30.09,SSE,153,2.0,13.0,69,0.00,,CLR,0.00,VWS V14.01,2013-02-09 23:52:00,
2013-02-09 17:53:00,38.8,29.5,30.09,SE,144,0.0,13.0,69,0.00,,CLR,0.00,VWS V14.01,2013-02-09 23:53:00,
2013-02-09 17:54:00,38.8,29.5,30.09,SE,143,0.0,13.0,69,0.00,,CLR,0.00,VWS V14.01,2013-02-09 23:54:00,
2013-02-09 17:57:00,38.7,29.8,30.09,SE,141,5.0,13.0,70,0.00,,CLR,0.00,VWS V14.01,2013-02-09 23:57:00,
2013-02-09 17:58:00,38.7,29.8,30.09,South,175,4.0,13.0,70,0.00,,CLR,0.00,VWS V14.01,2013-02-09 23:58:00,
2013-02-09 17:59:00,38.7,29.8,30.09,SSE,150,4.0,13.0,70,0.00,,CLR,0.00,VWS V14.01,2013-02-09 23:59:00,
2013-02-09 18:00:00,37.7,29.8,30.09,SE,124,5.0,10.0,73,0.00,,OVC043,0.00,VWS V14.01,2013-02-10 00:00:00,
2013-02-09 18:02:00,38.7,29.8,30.09,SE,140,6.0,10.0,70,0.00,,CLR,0.00,VWS V14.01,2013-02-10 00:02:00,
2013-02-09 18:03:00,38.7,29.8,30.09,SE,144,5.0,10.0,70,0.00,,CLR,0.00,VWS V14.01,2013-02-10 00:03:00,
2013-02-09 18:04:00,38.7,29.8,30.09,SSE,164,6.0,10.0,70,0.00,,CLR,0.00,VWS V14.01,2013-02-10 00:04:00,
2013-02-09 18:08:00,38.7,29.8,30.09,SE,142,3.0,14.0,70,0.00,,CLR,0.00,VWS V14.01,2013-02-10 00:08:00,
2013-02-09 18:09:00,38.5,29.6,30.09,SE,126,5.0,14.0,70,0.00,,CLR,0.00,VWS V14.01,2013-02-10 00:09:00,
2013-02-09 18:13:00,38.5,29.6,30.09,SE,127,6.0,14.0,70,0.00,,CLR,0.00,VWS V14.01,2013-02-10 00:13:00,
2013-02-09 18:14:00,38.5,29.6,30.09,SSE,154,0.0,14.0,70,0.00,,CLR,0.00,VWS V14.01,2013-02-10 00:14:00,
2013-02-09 18:18:00,38.5,29.6,30.09,SE,134,1.0,14.0,70,0.00,,CLR,0.00,VWS V14.01,2013-02-10 00:18:00,
2013-02-09 18:19:00,38.5,29.6,30.09,SE,138,5.0,14.0,70,0.00,,CLR,0.00,VWS V14.01,2013-02-10 00:19:00,
2013-02-09 18:23:00,38.5,29.6,30.09,SE,133,6.0,14.0,70,0.00,,CLR,0.00,VWS V14.01,2013-02-10 00:23:00,
2013-02-09 18:24:00,38.5,29.6,30.09,SE,126,5.0,14.0,70,0.00,,CLR,0.00,VWS V14.01,2013-02-10 00:24:00,
2013-02-09 18:28:00,38.5,29.6,30.09,SE,139,10.0,14.0,70,0.00,,CLR,0.00,VWS V14.01,2013-02-10 00:28:00,
2013-02-09 18:29:00,38.5,29.6,30.09,SE,131,7.0,14.0,70,0.00,,CLR,0.00,VWS V14.01,2013-02-10 00:29:00,
2013-02-09 18:30:00,37.1,30.2,30.09,SE,146,3.0,9.0,76,0.00,,OVC043,0.00,VWS V14.01,2013-02-10 00:30:00,
2013-02-09 18:33:00,38.4,29.5,30.09,ESE,117,1.0,10.0,70,0.00,,CLR,0.00,VWS V14.01,2013-02-10 00:33:00,
2013-02-09 18:34:00,38.4,29.5,30.09,ESE,114,3.0,10.0,70,0.00,,CLR,0.00,VWS V14.01,2013-02-10 00:34:00,
2013-02-09 18:38:00,38.2,29.6,30.09,SE,129,5.0,10.0,71,0.00,,CLR,0.00,VWS V14.01,2013-02-10 00:38:00,
2013-02-09 18:39:00,38.2,29.6,30.09,ESE,123,1.0,10.0,71,0.00,,CLR,0.00,VWS V14.01,2013-02-10 00:39:00,
2013-02-09 18:43:00,37.9,29.4,30.09,East,92,2.0,10.0,71,0.00,,CLR,0.00,VWS V14.01,2013-02-10 00:43:00,
2013-02-09 18:44:00,37.9,29.7,30.09,SE,136,2.0,10.0,72,0.00,,CLR,0.00,VWS V14.01,2013-02-10 00:44:00,
2013-02-09 18:45:00,37.9,29.7,30.09,SE,136,1.0,10.0,72,0.00,,CLR,0.00,VWS V14.01,2013-02-10 00:45:00,
2013-02-09 18:48:00,37.8,29.6,30.09,SE,136,3.0,10.0,72,0.00,,CLR,0.00,VWS V14.01,2013-02-10 00:48:00,
2013-02-09 18:49:00,37.8,29.6,30.09,ESE,121,5.0,10.0,72,0.00,,CLR,0.00,VWS V14.01,2013-02-10 00:49:00,
2013-02-09 18:50:00,37.8,29.6,30.09,ESE,119,4.0,10.0,72,0.00,,CLR,0.00,VWS V14.01,2013-02-10 00:50:00,
2013-02-09 18:53:00,37.8,29.6,30.09,SE,136,2.0,10.0,72,0.00,,CLR,0.00,VWS V14.01,2013-02-10 00:53:00,
2013-02-09 18:54:00,37.8,29.6,30.09,SE,129,4.0,10.0,72,0.00,,CLR,0.00,VWS V14.01,2013-02-10 00:54:00,
2013-02-09 18:55:00,37.8,29.9,30.09,SE,130,3.0,10.0,73,0.00,,CLR,0.00,VWS V14.01,2013-02-10 00:55:00,
2013-02-09 18:58:00,37.7,29.8,30.09,SSE,168,4.0,10.0,73,0.00,,CLR,0.00,VWS V14.01,2013-02-10 00:58:00,
2013-02-09 18:59:00,37.7,29.8,30.09,SE,129,2.0,10.0,73,0.00,,CLR,0.00,VWS V14.01,2013-02-10 00:59:00,
2013-02-09 19:00:00,37.7,29.8,30.09,SE,132,5.0,5.0,73,0.00,,CLR,0.00,VWS V14.01,2013-02-10 01:00:00,
2013-02-09 19:03:00,37.7,29.8,30.09,SSE,148,3.0,7.0,73,0.00,,CLR,0.00,VWS V14.01,2013-02-10 01:03:00,
2013-02-09 19:04:00,37.7,29.8,30.09,SSE,147,0.0,7.0,73,0.00,,CLR,0.00,VWS V14.01,2013-02-10 01:04:00,
2013-02-09 19:05:00,37.7,29.8,30.09,SE,131,5.0,7.0,73,0.00,,CLR,0.00,VWS V14.01,2013-02-10 01:05:00,
2013-02-09 19:08:00,37.5,29.6,30.09,SE,128,4.0,7.0,73,0.00,,CLR,0.00,VWS V14.01,2013-02-10 01:08:00,
2013-02-09 19:09:00,37.5,30.0,30.09,SE,124,5.0,7.0,74,0.00,,CLR,0.00,VWS V14.01,2013-02-10 01:09:00,
2013-02-09 19:10:00,37.5,30.0,30.09,SE,134,0.0,7.0,74,0.00,,CLR,0.00,VWS V14.01,2013-02-10 01:10:00,
2013-02-09 19:13:00,37.4,29.9,30.09,SE,127,2.0,7.0,74,0.00,,CLR,0.00,VWS V14.01,2013-02-10 01:13:00,
2013-02-09 19:14:00,37.4,29.9,30.09,ESE,122,3.0,7.0,74,0.00,,CLR,0.00,VWS V14.01,2013-02-10 01:14:00,
2013-02-09 19:15:00,37.4,29.9,30.09,SE,124,4.0,7.0,74,0.00,,CLR,0.00,VWS V14.01,2013-02-10 01:15:00,
2013-02-09 19:19:00,37.4,30.2,30.09,SE,136,4.0,7.0,75,0.00,,CLR,0.00,VWS V14.01,2013-02-10 01:19:00,
2013-02-09 19:20:00,37.2,30.0,30.09,SE,136,2.0,7.0,75,0.00,,CLR,0.00,VWS V14.01,2013-02-10 01:20:00,
2013-02-09 19:24:00,37.2,30.0,30.09,SE,126,2.0,9.0,75,0.00,,CLR,0.00,VWS V14.01,2013-02-10 01:24:00,
2013-02-09 19:25:00,37.2,30.0,30.09,SE,128,3.0,9.0,75,0.00,,CLR,0.00,VWS V14.01,2013-02-10 01:25:00,
2013-02-09 19:29:00,37.1,30.2,30.09,SE,141,5.0,9.0,76,0.00,,CLR,0.00,VWS V14.01,2013-02-10 01:29:00,
2013-02-09 19:30:00,37.1,30.2,30.09,SSE,167,2.0,4.0,76,0.00,,CLR,0.00,VWS V14.01,2013-02-10 01:30:00,
2013-02-09 19:34:00,37.1,30.2,30.09,South,174,1.0,6.0,76,0.00,,CLR,0.00,VWS V14.01,2013-02-10 01:34:00,
2013-02-09 19:35:00,37.1,30.2,30.09,SE,126,3.0,6.0,76,0.00,,CLR,0.00,VWS V14.01,2013-02-10 01:35:00,
2013-02-09 19:39:00,37.1,30.2,30.09,SE,125,6.0,7.0,76,0.00,,CLR,0.00,VWS V14.01,2013-02-10 01:39:00,
2013-02-09 19:40:00,37.1,30.2,30.09,SE,138,2.0,9.0,76,0.00,,CLR,0.00,VWS V14.01,2013-02-10 01:40:00,
2013-02-09 19:44:00,37.2,30.4,30.09,SE,133,2.0,9.0,76,0.00,,CLR,0.00,VWS V14.01,2013-02-10 01:44:00,
2013-02-09 19:45:00,37.2,30.4,30.09,SE,133,6.0,9.0,76,0.00,,CLR,0.00,VWS V14.01,2013-02-10 01:45:00,
2013-02-09 19:49:00,37.2,30.4,30.09,SE,126,2.0,9.0,76,0.00,,CLR,0.00,VWS V14.01,2013-02-10 01:49:00,
2013-02-09 19:50:00,37.2,30.4,30.09,SE,128,0.0,9.0,76,0.00,,CLR,0.00,VWS V14.01,2013-02-10 01:50:00,
2013-02-09 19:54:00,37.2,30.4,30.09,SE,128,5.0,9.0,76,0.00,,CLR,0.00,VWS V14.01,2013-02-10 01:54:00,
2013-02-09 19:55:00,37.2,30.4,30.09,SE,134,6.0,9.0,76,0.00,,CLR,0.00,VWS V14.01,2013-02-10 01:55:00,
2013-02-09 19:59:00,37.2,30.4,30.09,SE,142,5.0,11.0,76,0.00,,CLR,0.00,VWS V14.01,2013-02-10 01:59:00,
2013-02-09 20:00:00,37.4,30.5,30.09,SE,132,6.0,7.0,76,0.00,,CLR,0.00,VWS V14.01,2013-02-10 02:00:00,
2013-02-09 20:05:00,37.4,30.5,30.09,ESE,113,0.0,11.0,76,0.00,,CLR,0.00,VWS V14.01,2013-02-10 02:05:00,
2013-02-09 20:06:00,37.4,30.5,30.09,SE,144,5.0,11.0,76,0.00,,CLR,0.00,VWS V14.01,2013-02-10 02:06:00,
2013-02-09 20:10:00,37.4,30.5,30.09,SE,137,3.0,11.0,76,0.00,,CLR,0.00,VWS V14.01,2013-02-10 02:10:00,
2013-02-09 20:11:00,37.4,30.5,30.09,SE,144,2.0,11.0,76,0.00,,CLR,0.00,VWS V14.01,2013-02-10 02:11:00,
2013-02-09 20:15:00,37.4,30.5,30.09,SSE,147,3.0,11.0,76,0.00,,CLR,0.00,VWS V14.01,2013-02-10 02:15:00,
2013-02-09 20:16:00,37.4,30.5,30.09,ESE,113,4.0,11.0,76,0.00,,CLR,0.00,VWS V14.01,2013-02-10 02:16:00,
2013-02-09 20:20:00,37.2,30.4,30.09,SE,136,4.0,11.0,76,0.00,,CLR,0.00,VWS V14.01,2013-02-10 02:20:00,
2013-02-09 20:21:00,37.2,30.4,30.09,SE,141,5.0,11.0,76,0.00,,CLR,0.00,VWS V14.01,2013-02-10 02:21:00,
2013-02-09 20:25:00,37.2,30.4,30.09,SE,143,0.0,11.0,76,0.00,,CLR,0.00,VWS V14.01,2013-02-10 02:25:00,
2013-02-09 20:26:00,37.2,30.4,30.09,SE,138,6.0,11.0,76,0.00,,CLR,0.00,VWS V14.01,2013-02-10 02:26:00,
2013-02-09 20:30:00,37.2,30.4,30.09,SE,128,3.0,6.0,76,0.00,,CLR,0.00,VWS V14.01,2013-02-10 02:30:00,
2013-02-09 20:31:00,37.2,30.4,30.09,ESE,122,4.0,6.0,76,0.00,,CLR,0.00,VWS V14.01,2013-02-10 02:31:00,
2013-02-09 20:35:00,37.2,30.4,30.09,SE,128,4.0,9.0,76,0.00,,CLR,0.00,VWS V14.01,2013-02-10 02:35:00,
2013-02-09 20:36:00,37.2,30.7,30.09,SE,127,3.0,9.0,77,0.00,,CLR,0.00,VWS V14.01,2013-02-10 02:36:00,
2013-02-09 20:40:00,37.2,30.7,30.09,SE,131,3.0,9.0,77,0.00,,CLR,0.00,VWS V14.01,2013-02-10 02:40:00,
2013-02-09 20:41:00,37.2,30.7,30.09,SE,132,5.0,9.0,77,0.00,,CLR,0.00,VWS V14.01,2013-02-10 02:41:00,
2013-02-09 20:45:00,37.2,30.4,30.08,SE,140,2.0,10.0,76,0.00,,CLR,0.00,VWS V14.01,2013-02-10 02:45:00,
2013-02-09 20:46:00,37.2,30.4,30.08,South,175,3.0,10.0,76,0.00,,CLR,0.00,VWS V14.01,2013-02-10 02:46:00,
2013-02-09 20:47:00,37.2,30.4,30.08,SE,138,5.0,10.0,76,0.00,,CLR,0.00,VWS V14.01,2013-02-10 02:47:00,
2013-02-09 20:50:00,37.4,30.5,30.08,ESE,120,5.0,10.0,76,0.00,,CLR,0.00,VWS V14.01,2013-02-10 02:50:00,
2013-02-09 20:51:00,37.4,30.5,30.08,SSE,165,1.0,10.0,76,0.00,,CLR,0.00,VWS V14.01,2013-02-10 02:51:00,
2013-02-09 20:52:00,37.4,30.5,30.08,SSE,165,0.0,10.0,76,0.00,,CLR,0.00,VWS V14.01,2013-02-10 02:52:00,
2013-02-09 20:55:00,37.4,30.5,30.08,SE,129,4.0,10.0,76,0.00,,CLR,0.00,VWS V14.01,2013-02-10 02:55:00,
2013-02-09 20:56:00,37.4,30.5,30.08,SE,136,5.0,10.0,76,0.00,,CLR,0.00,VWS V14.01,2013-02-10 02:56:00,
2013-02-09 20:57:00,37.4,30.5,30.08,SE,136,7.0,10.0,76,0.00,,CLR,0.00,VWS V14.01,2013-02-10 02:57:00,
2013-02-09 21:00:00,37.5,30.6,30.07,ESE,109,4.0,7.0,76,0.00,,CLR,0.00,VWS V14.01,2013-02-10 03:00:00,
2013-02-09 21:02:00,37.5,30.6,30.07,SE,134,0.0,7.0,76,0.00,,CLR,0.00,VWS V14.01,2013-02-10 03:02:00,
2013-02-09 21:05:00,37.5,30.6,30.07,SE,146,4.0,9.0,76,0.00,,CLR,0.00,VWS V14.01,2013-02-10 03:05:00,
2013-02-09 21:07:00,37.5,30.6,30.07,SE,128,4.0,9.0,76,0.00,,CLR,0.00,VWS V14.01,2013-02-10 03:07:00,
2013-02-09 21:11:00,37.7,30.8,30.07,SSE,149,4.0,12.0,76,0.00,,CLR,0.00,VWS V14.01,2013-02-10 03:11:00,
2013-02-09 21:12:00,37.8,30.6,30.07,SE,138,3.0,12.0,75,0.00,,CLR,0.00,VWS V14.01,2013-02-10 03:12:00,
2013-02-09 21:16:00,37.8,30.6,30.06,South,191,10.0,12.0,75,0.00,,CLR,0.00,VWS V14.01,2013-02-10 03:16:00,
2013-02-09 21:17:00,37.8,30.6,30.06,SE,142,10.0,12.0,75,0.00,,CLR,0.00,VWS V14.01,2013-02-10 03:17:00,
2013-02-09 21:21:00,37.9,30.7,30.06,SE,127,4.0,12.0,75,0.00,,CLR,0.00,VWS V14.01,2013-02-10 03:21:00,
2013-02-09 21:22:00,37.9,30.7,30.06,SSE,167,4.0,12.0,75,0.00,,CLR,0.00,VWS V14.01,2013-02-10 03:22:00,
2013-02-09 21:26:00,38.1,30.9,30.06,ESE,109,3.0,12.0,75,0.00,,CLR,0.00,VWS V14.01,2013-02-10 03:26:00,
2013-02-09 21:27:00,38.1,30.6,30.06,SE,137,3.0,12.0,74,0.00,,CLR,0.00,VWS V14.01,2013-02-10 03:27:00,
2013-02-09 21:30:00,38.8,30.6,30.03,SE,131,10.0,12.0,72,0.00,,OVC043,0.00,VWS V14.01,2013-02-10 03:30:00,
2013-02-09 21:31:00,38.1,30.6,30.06,SE,133,6.0,8.0,74,0.00,,CLR,0.00,VWS V14.01,2013-02-10 03:31:00,
2013-02-09 21:32:00,38.1,30.6,30.06,South,172,6.0,10.0,74,0.00,,CLR,0.00,VWS V14.01,2013-02-10 03:32:00,
2013-02-09 21:36:00,38.2,30.7,30.06,South,177,3.0,10.0,74,0.00,,CLR,0.00,VWS V14.01,2013-02-10 03:36:00,
2013-02-09 21:37:00,38.2,30.7,30.06,SSE,155,3.0,10.0,74,0.00,,CLR,0.00,VWS V14.01,2013-02-10 03:37:00,
2013-02-09 21:41:00,38.4,30.9,30.06,SSE,151,0.0,11.0,74,0.00,,CLR,0.00,VWS V14.01,2013-02-10 03:41:00,
2013-02-09 21:42:00,38.4,30.9,30.06,SSW,193,10.0,11.0,74,0.00,,CLR,0.00,VWS V14.01,2013-02-10 03:42:00,
2013-02-09 21:46:00,38.4,30.5,30.05,South,175,0.0,12.0,73,0.00,,CLR,0.00,VWS V14.01,2013-02-10 03:46:00,
2013-02-09 21:47:00,38.5,30.6,30.05,South,175,4.0,12.0,73,0.00,,CLR,0.00,VWS V14.01,2013-02-10 03:47:00,
2013-02-09 21:48:00,38.5,30.6,30.05,SE,135,7.0,12.0,73,0.00,,CLR,0.00,VWS V14.01,2013-02-10 03:48:00,
2013-02-09 21:51:00,38.5,30.6,30.05,SE,138,5.0,12.0,73,0.00,,CLR,0.00,VWS V14.01,2013-02-10 03:51:00,
2013-02-09 21:52:00,38.5,30.6,30.05,ESE,119,3.0,12.0,73,0.00,,CLR,0.00,VWS V14.01,2013-02-10 03:52:00,
2013-02-09 21:53:00,38.5,30.6,30.05,SE,141,4.0,12.0,73,0.00,,CLR,0.00,VWS V14.01,2013-02-10 03:53:00,
2013-02-09 21:56:00,38.5,30.3,30.05,SSE,149,3.0,12.0,72,0.00,,CLR,0.00,VWS V14.01,2013-02-10 03:56:00,
2013-02-09 21:57:00,38.7,30.5,30.05,SE,130,2.0,12.0,72,0.00,,CLR,0.00,VWS V14.01,2013-02-10 03:57:00,
2013-02-09 21:58:00,38.7,30.5,30.05,ESE,121,4.0,12.0,72,0.00,,CLR,0.00,VWS V14.01,2013-02-10 03:58:00,
2013-02-09 22:00:00,39.4,30.8,30.02,SE,130,3.0,13.0,71,0.00,,OVC043,0.00,VWS V14.01,2013-02-10 04:00:00,
2013-02-09 22:01:00,38.5,30.6,30.04,SE,141,1.0,5.0,73,0.00,,BKN120,0.00,VWS V14.01,2013-02-10 04:01:00,
2013-02-09 22:02:00,38.5,30.3,30.04,SSE,157,3.0,5.0,72,0.00,,BKN120,0.00,VWS V14.01,2013-02-10 04:02:00,
2013-02-09 22:03:00,38.5,30.3,30.04,South,182,11.0,11.0,72,0.00,,BKN120,0.00,VWS V14.01,2013-02-10 04:03:00,
2013-02-09 22:07:00,38.5,30.3,30.04,SSE,154,2.0,11.0,72,0.00,,BKN120,0.00,VWS V14.01,2013-02-10 04:07:00,
2013-02-09 22:08:00,38.5,30.3,30.04,SSE,147,7.0,11.0,72,0.00,,BKN120,0.00,VWS V14.01,2013-02-10 04:08:00,
2013-02-09 22:12:00,38.7,30.5,30.04,SE,127,5.0,11.0,72,0.00,,BKN120,0.00,VWS V14.01,2013-02-10 04:12:00,
2013-02-09 22:13:00,38.7,30.5,30.04,SE,136,1.0,11.0,72,0.00,,BKN120,0.00,VWS V14.01,2013-02-10 04:13:00,
2013-02-09 22:17:00,38.7,30.8,30.04,SE,139,5.0,12.0,73,0.00,,BKN120,0.00,VWS V14.01,2013-02-10 04:17:00,
2013-02-09 22:18:00,38.7,30.5,30.04,SE,144,1.0,12.0,72,0.00,,BKN120,0.00,VWS V14.01,2013-02-10 04:18:00,
2013-02-09 22:22:00,38.7,30.8,30.04,SSE,162,3.0,12.0,73,0.00,,BKN120,0.00,VWS V14.01,2013-02-10 04:22:00,
2013-02-09 22:23:00,38.7,30.8,30.04,SSE,161,4.0,12.0,73,0.00,,BKN120,0.00,VWS V14.01,2013-02-10 04:23:00,
2013-02-09 22:27:00,38.7,30.5,30.04,ESE,117,2.0,12.0,72,0.00,,BKN120,0.00,VWS V14.01,2013-02-10 04:27:00,
2013-02-09 22:28:00,38.7,30.8,30.04,SE,130,10.0,12.0,73,0.00,,BKN120,0.00,VWS V14.01,2013-02-10 04:28:00,
2013-02-09 22:30:00,39.2,31.0,30.02,SE,140,10.0,15.0,72,0.00,,OVC043,0.00,VWS V14.01,2013-02-10 04:30:00,
2013-02-09 22:32:00,38.8,30.6,30.03,SE,144,1.0,11.0,72,0.00,,BKN120,0.00,VWS V14.01,2013-02-10 04:32:00,
2013-02-09 22:33:00,38.8,30.6,30.03,SE,146,6.0,11.0,72,0.00,,BKN120,0.00,VWS V14.01,2013-02-10 04:33:00,
2013-02-09 22:37:00,39.0,30.8,30.03,SE,130,4.0,13.0,72,0.00,,BKN120,0.00,VWS V14.01,2013-02-10 04:37:00,
2013-02-09 22:38:00,39.0,30.8,30.03,South,170,3.0,13.0,72,0.00,,BKN120,0.00,VWS V14.01,2013-02-10 04:38:00,
2013-02-09 22:42:00,39.0,30.4,30.03,SSE,164,0.0,13.0,71,0.00,,BKN120,0.00,VWS V14.01,2013-02-10 04:42:00,
2013-02-09 22:43:00,39.0,30.4,30.03,SSE,163,2.0,13.0,71,0.00,,BKN120,0.00,VWS V14.01,2013-02-10 04:43:00,
2013-02-09 22:48:00,39.1,30.5,30.03,SSE,157,4.0,13.0,71,0.00,,-RA,0.00,VWS V14.01,2013-02-10 04:48:00,
2013-02-09 22:53:00,39.2,30.2,30.03,SE,137,5.0,13.0,70,0.00,,-RA,0.00,VWS V14.01,2013-02-10 04:53:00,
2013-02-09 22:54:00,39.2,30.2,30.03,SE,142,2.0,13.0,70,0.00,,-RA,0.00,VWS V14.01,2013-02-10 04:54:00,
2013-02-09 22:58:00,39.4,30.4,30.03,SE,125,7.0,13.0,70,0.00,,-RA,0.00,VWS V14.01,2013-02-10 04:58:00,
2013-02-09 22:59:00,39.4,30.8,30.02,SE,131,5.0,13.0,71,0.00,,-RA,0.00,VWS V14.01,2013-02-10 04:59:00,
2013-02-09 23:00:00,39.4,30.8,30.02,ESE,121,4.0,4.0,71,0.00,,-RA,0.00,VWS V14.01,2013-02-10 05:00:00,
2013-02-09 23:05:00,39.2,31.0,30.02,SSE,161,1.0,13.0,72,0.00,,-RA,0.00,VWS V14.01,2013-02-10 05:05:00,
2013-02-09 23:10:00,39.1,31.2,30.02,SE,139,0.0,15.0,73,0.00,,-RA,0.00,VWS V14.01,2013-02-10 05:10:00,
2013-02-09 23:15:00,39.0,31.1,30.02,SE,138,5.0,15.0,73,0.00,,-RA,0.00,VWS V14.01,2013-02-10 05:15:00,
2013-02-09 23:20:00,39.1,31.2,30.02,SSE,148,0.0,15.0,73,0.00,,-RA,0.00,VWS V14.01,2013-02-10 05:20:00,
2013-02-09 23:25:00,39.1,31.2,30.02,SE,130,6.0,15.0,73,0.00,,-RA,0.00,VWS V14.01,2013-02-10 05:25:00,
2013-02-09 23:30:00,39.2,31.3,30.02,SSE,165,4.0,12.0,73,0.00,,-RA,0.00,VWS V14.01,2013-02-10 05:30:00,
2013-02-09 23:31:00,39.2,31.3,30.02,SE,144,2.0,12.0,73,0.00,,-RA,0.00,VWS V14.01,2013-02-10 05:31:00,
2013-02-09 23:35:00,39.2,31.3,30.02,SE,128,5.0,12.0,73,0.00,,-RA,0.00,VWS V14.01,2013-02-10 05:35:00,
2013-02-09 23:36:00,39.2,31.3,30.02,SSE,148,3.0,12.0,73,0.00,,-RA,0.00,VWS V14.01,2013-02-10 05:36:00,
2013-02-09 23:40:00,39.1,31.2,30.02,SE,140,4.0,12.0,73,0.00,,-RA,0.00,VWS V14.01,2013-02-10 05:40:00,
2013-02-09 23:41:00,39.1,31.2,30.02,SE,129,0.0,12.0,73,0.00,,-RA,0.00,VWS V14.01,2013-02-10 05:41:00,
2013-02-09 23:45:00,39.1,31.2,30.02,SE,132,0.0,12.0,73,0.00,,-RA,0.00,VWS V14.01,2013-02-10 05:45:00,
2013-02-09 23:46:00,39.1,31.2,30.02,SE,133,0.0,12.0,73,0.00,,OVC080,0.00,VWS V14.01,2013-02-10 05:46:00,
2013-02-09 23:50:00,39.1,31.2,30.02,ESE,117,6.0,12.0,73,0.00,,OVC080,0.00,VWS V14.01,2013-02-10 05:50:00,
2013-02-09 23:51:00,39.1,31.5,30.02,South,175,0.0,12.0,74,0.00,,OVC080,0.00,VWS V14.01,2013-02-10 05:51:00,
2013-02-09 23:55:00,39.1,31.5,30.02,SSE,160,3.0,12.0,74,0.00,,OVC080,0.00,VWS V14.01,2013-02-10 05:55:00,
2013-02-09 23:56:00,39.1,31.5,30.02,SE,134,6.0,12.0,74,0.00,,OVC080,0.00,VWS V14.01,2013-02-10 05:56:00,
2013-02-09 23:57:00,39.0,31.8,30.02,SE,130,4.0,12.0,75,0.00,,OVC080,0.00,VWS V14.01,2013-02-10 05:57:00,